SVA038 KIAD-OERK

Flight info

Callsign SVA038
Flight time N/A
Altitude 33000
Route JCOBY4 SWANN DCT BROSS Q419 RBV Q22 FOXWD DCT BRADD DCT SUPRY/M083F350 DCT 46N050W 48N040W 50N030W 52N020W DCT LIMRI/N0477F350 DCT XETBO/M083F370 DCT TAKAS/N0474F370 DCT ALUTA DCT KORER DCT LEMKA DCT BEBIX/N0466F360 DCT VALKU/N0472F370 DCT LERGA DCT TOZOT DCT OTROT DCT RETNO DCT KOLON DCT RAPUR DCT RATAP DCT BTA DCT DOKAR DCT SUNEV DCT KONUT DCT NAXES DCT BELIX/N0466F390 DCT SALUN N705 MMA P751 DASUM Y234 FYM M872 WEJ L604 GAS G662 SIVIS
Aircraft B77W/H-SDE2E3FGHIRWXY/L

Departure

Time 2026-05-07 22:35
Airport Washington Dulles International Airport (KIAD)

Arrival

Time N/A
Airport King Khalid International Airport (OERK)
Time Latitude Longitude Altitude Speed Heading
2026-05-07 21:28 38.94812 -77.44836 298 ft 0 kts
2026-05-07 22:16 38.94810 -77.44837 298 ft 1 kts
2026-05-07 22:16 38.94796 -77.44839 298 ft 0 kts
2026-05-07 22:16 38.94785 -77.44840 298 ft 2 kts
2026-05-07 22:16 38.94770 -77.44838 298 ft 2 kts 342°
2026-05-07 22:17 38.94757 -77.44830 298 ft 2 kts 328°
2026-05-07 22:17 38.94745 -77.44819 298 ft 2 kts 314°
2026-05-07 22:17 38.94736 -77.44804 298 ft 2 kts 299°
2026-05-07 22:17 38.94730 -77.44786 299 ft 2 kts 285°
2026-05-07 22:18 38.94728 -77.44769 299 ft 1 kts 272°
2026-05-07 22:18 38.94728 -77.44765 299 ft 0 kts 270°
2026-05-07 22:27 38.94728 -77.44793 298 ft 5 kts 272°
2026-05-07 22:27 38.94730 -77.44859 298 ft 8 kts 272°
2026-05-07 22:28 38.94732 -77.44940 298 ft 9 kts 272°
2026-05-07 22:28 38.94735 -77.45033 298 ft 10 kts 272°
2026-05-07 22:28 38.94734 -77.45134 298 ft 11 kts 269°
2026-05-07 22:28 38.94733 -77.45248 297 ft 13 kts 270°
2026-05-07 22:29 38.94737 -77.45376 297 ft 14 kts 271°
2026-05-07 22:29 38.94740 -77.45511 295 ft 16 kts 269°
2026-05-07 22:29 38.94674 -77.45606 295 ft 15 kts 185°
2026-05-07 22:29 38.94565 -77.45609 296 ft 15 kts 181°
2026-05-07 22:30 38.94453 -77.45612 296 ft 16 kts 181°
2026-05-07 22:30 38.94341 -77.45614 298 ft 15 kts 181°
2026-05-07 22:30 38.94231 -77.45616 298 ft 16 kts 181°
2026-05-07 22:30 38.94118 -77.45615 298 ft 16 kts 180°
2026-05-07 22:31 38.93996 -77.45617 296 ft 18 kts 181°
2026-05-07 22:31 38.93861 -77.45619 295 ft 19 kts 182°
2026-05-07 22:31 38.93724 -77.45618 293 ft 20 kts 161°
2026-05-07 22:31 38.93628 -77.45507 291 ft 17 kts 152°
2026-05-07 22:32 38.93510 -77.45537 289 ft 18 kts 202°
2026-05-07 22:32 38.93472 -77.45556 288 ft 0 kts 202°
2026-05-07 22:32 38.93461 -77.45561 288 ft 3 kts 201°
2026-05-07 22:33 38.93428 -77.45577 287 ft 6 kts 199°
2026-05-07 22:33 38.93390 -77.45612 287 ft 6 kts 253°
2026-05-07 22:33 38.93388 -77.45679 287 ft 8 kts 289°
2026-05-07 22:33 38.93390 -77.45689 287 ft 0 kts 290°
2026-05-07 22:34 38.93434 -77.45837 288 ft 51 kts 291°
2026-05-07 22:34 38.93650 -77.46560 297 ft 120 kts 292°
2026-05-07 22:34 38.94023 -77.47826 305 ft 181 kts 291°
2026-05-07 22:34 38.94507 -77.49491 608 ft 212 kts 291°
2026-05-07 22:35 38.95011 -77.51304 1293 ft 223 kts 292°
2026-05-07 22:35 38.95719 -77.52953 2397 ft 215 kts 312°
2026-05-07 22:35 38.96988 -77.54088 3011 ft 232 kts 342°
2026-05-07 22:35 38.98575 -77.54205 3780 ft 232 kts 12°
2026-05-07 22:36 39.00056 -77.53253 4071 ft 249 kts 44°
2026-05-07 22:36 39.01058 -77.51346 4303 ft 270 kts 62°
2026-05-07 22:36 39.01889 -77.49146 4838 ft 277 kts 63°
2026-05-07 22:36 39.02726 -77.46885 5495 ft 280 kts 63°
2026-05-07 22:37 39.03567 -77.44607 6122 ft 284 kts 63°
2026-05-07 22:37 39.04412 -77.42320 6764 ft 286 kts 63°
2026-05-07 22:37 39.05265 -77.40007 7389 ft 290 kts 63°
2026-05-07 22:37 39.06129 -77.37666 7978 ft 294 kts 64°
2026-05-07 22:38 39.07005 -77.35287 8611 ft 296 kts 63°
2026-05-07 22:38 39.07886 -77.32893 9205 ft 299 kts 64°
2026-05-07 22:38 39.08776 -77.30471 9810 ft 302 kts 63°
2026-05-07 22:38 39.09684 -77.28001 10385 ft 306 kts 63°
2026-05-07 22:39 39.10618 -77.25459 10686 ft 322 kts 63°
2026-05-07 22:39 39.11596 -77.22796 10955 ft 338 kts 64°
2026-05-07 22:39 39.12561 -77.19941 11228 ft 355 kts 71°
2026-05-07 22:39 39.13087 -77.16777 11508 ft 371 kts 84°
2026-05-07 22:40 39.13015 -77.13367 11780 ft 386 kts 98°
2026-05-07 22:40 39.12507 -77.09925 12196 ft 396 kts 101°
2026-05-07 22:40 39.11936 -77.06421 12832 ft 400 kts 101°
2026-05-07 22:40 39.11371 -77.02947 13495 ft 402 kts 101°
2026-05-07 22:41 39.10863 -76.99405 14059 ft 406 kts 95°
2026-05-07 22:41 39.10784 -76.95737 14664 ft 409 kts 88°
2026-05-07 22:41 39.10871 -76.92104 15314 ft 411 kts 88°
2026-05-07 22:41 39.10967 -76.88425 15931 ft 414 kts 88°
2026-05-07 22:42 39.11062 -76.84724 16556 ft 417 kts 88°
2026-05-07 22:42 39.11157 -76.80978 17147 ft 421 kts 88°
2026-05-07 22:42 39.11251 -76.77174 17696 ft 425 kts 88°
2026-05-07 22:42 39.11344 -76.73386 18181 ft 431 kts 88°
2026-05-07 22:43 39.11439 -76.69450 18694 ft 436 kts 88°
2026-05-07 22:43 39.11531 -76.65582 19196 ft 441 kts 89°
2026-05-07 22:43 39.11624 -76.61610 19665 ft 447 kts 89°
2026-05-07 22:43 39.11716 -76.57588 20169 ft 452 kts 89°
2026-05-07 22:44 39.11811 -76.53492 20688 ft 456 kts 88°
2026-05-07 22:44 39.12138 -76.49423 21176 ft 461 kts 83°
2026-05-07 22:44 39.12599 -76.45346 21625 ft 466 kts 82°
2026-05-07 22:44 39.13073 -76.41208 22048 ft 471 kts 82°
2026-05-07 22:45 39.13552 -76.37006 22505 ft 476 kts 82°
2026-05-07 22:45 39.14032 -76.32767 22930 ft 481 kts 83°
2026-05-07 22:45 39.14513 -76.28496 23320 ft 486 kts 83°
2026-05-07 22:45 39.15003 -76.24128 23723 ft 490 kts 84°
2026-05-07 22:46 39.15492 -76.19804 24109 ft 495 kts 83°
2026-05-07 22:46 39.15990 -76.15489 24501 ft 499 kts 84°
2026-05-07 22:46 39.16501 -76.11057 24845 ft 504 kts 84°
2026-05-07 22:46 39.17017 -76.06561 25203 ft 509 kts 84°
2026-05-07 22:47 39.17527 -76.02093 25594 ft 512 kts 84°
2026-05-07 22:47 39.18104 -75.97523 25938 ft 518 kts 80°
2026-05-07 22:47 39.19123 -75.93038 26266 ft 525 kts 71°
2026-05-07 22:47 39.20642 -75.88759 26570 ft 532 kts 62°
2026-05-07 22:48 39.22645 -75.84739 26867 ft 537 kts 52°
2026-05-07 22:48 39.25061 -75.81147 27197 ft 540 kts 43°
2026-05-07 22:48 39.27885 -75.77925 27548 ft 542 kts 37°
2026-05-07 22:48 39.30805 -75.74851 27883 ft 546 kts 37°
2026-05-07 22:49 39.33799 -75.71684 28182 ft 551 kts 37°
2026-05-07 22:49 39.36753 -75.68529 28490 ft 556 kts 38°
2026-05-07 22:49 39.39720 -75.65336 28823 ft 560 kts 38°
2026-05-07 22:49 39.42725 -75.62080 29164 ft 563 kts 38°
2026-05-07 22:50 39.45744 -75.58794 29585 ft 565 kts 38°
2026-05-07 22:50 39.48732 -75.55528 30037 ft 566 kts 38°
2026-05-07 22:50 39.51761 -75.52206 30585 ft 565 kts 38°
2026-05-07 22:50 39.54722 -75.48951 31162 ft 562 kts 38°
2026-05-07 22:51 39.57718 -75.45650 31710 ft 560 kts 38°
2026-05-07 22:51 39.60565 -75.42507 32141 ft 560 kts 38°
2026-05-07 22:51 39.63552 -75.39204 32545 ft 560 kts 38°
2026-05-07 22:51 39.66501 -75.35938 32932 ft 560 kts 38°
2026-05-07 22:52 39.69483 -75.32630 32956 ft 563 kts 39°
2026-05-07 22:52 39.75419 -75.26030 32964 ft 560 kts 38°
2026-05-07 22:53 39.80987 -75.19138 32976 ft 563 kts 47°
2026-05-07 22:53 39.86166 -75.11472 32973 ft 562 kts 48°
2026-05-07 22:54 39.91294 -75.03832 32974 ft 563 kts 48°
2026-05-07 22:54 39.96410 -74.96136 32963 ft 563 kts 52°
2026-05-07 22:55 40.00854 -74.87766 32974 ft 564 kts 57°
2026-05-07 22:55 40.05183 -74.79253 32976 ft 563 kts 57°
2026-05-07 22:56 40.09474 -74.70800 32980 ft 562 kts 57°
2026-05-07 22:56 40.13802 -74.62257 32967 ft 563 kts 57°
2026-05-07 22:57 40.18104 -74.53758 32964 ft 563 kts 55°
2026-05-07 22:57 40.23320 -74.46229 32972 ft 560 kts 38°
2026-05-07 22:58 40.29300 -74.39795 32975 ft 560 kts 36°
2026-05-07 22:58 40.35365 -74.33320 32965 ft 560 kts 37°
2026-05-07 22:59 40.41347 -74.26912 32962 ft 561 kts 37°
2026-05-07 22:59 40.47415 -74.20392 32961 ft 560 kts 37°
2026-05-07 23:00 40.53405 -74.13938 32962 ft 561 kts 37°
2026-05-07 23:00 40.59436 -74.07423 32964 ft 560 kts 37°
2026-05-07 23:01 40.65468 -74.00890 32966 ft 562 kts 37°
2026-05-07 23:01 40.71448 -73.94398 32966 ft 560 kts 37°
2026-05-07 23:02 40.77485 -73.87827 32972 ft 561 kts 37°
2026-05-07 23:02 40.83461 -73.81300 32971 ft 561 kts 38°
2026-05-07 23:03 40.88660 -73.73692 32987 ft 562 kts 54°
2026-05-07 23:03 40.93176 -73.65247 32984 ft 564 kts 55°
2026-05-07 23:04 40.97646 -73.56808 32982 ft 562 kts 55°
2026-05-07 23:04 41.02103 -73.48374 32979 ft 563 kts 55°
2026-05-07 23:05 41.06605 -73.39831 32987 ft 563 kts 55°
2026-05-07 23:05 41.11089 -73.31300 32969 ft 563 kts 56°
2026-05-07 23:06 41.15576 -73.22739 32969 ft 562 kts 56°
2026-05-07 23:06 41.20011 -73.14255 32971 ft 564 kts 56°
2026-05-07 23:07 41.24492 -73.05657 32969 ft 563 kts 56°
2026-05-07 23:07 41.28914 -72.97150 32969 ft 562 kts 56°
2026-05-07 23:08 41.33023 -72.88313 32974 ft 564 kts 61°
2026-05-07 23:08 41.36978 -72.79372 32980 ft 561 kts 60°
2026-05-07 23:09 41.40931 -72.70462 32985 ft 563 kts 60°
2026-05-07 23:09 41.44906 -72.61507 32989 ft 562 kts 60°
2026-05-07 23:10 41.48882 -72.52539 32989 ft 563 kts 60°
2026-05-07 23:10 41.52842 -72.43594 32994 ft 562 kts 60°
2026-05-07 23:11 41.56772 -72.34692 32999 ft 563 kts 61°
2026-05-07 23:11 41.60760 -72.25639 32987 ft 561 kts 61°
2026-05-07 23:12 41.64716 -72.16631 32988 ft 563 kts 61°
2026-05-07 23:12 41.68642 -72.07668 32987 ft 562 kts 61°
2026-05-07 23:13 41.72609 -71.98581 32986 ft 563 kts 61°
2026-05-07 23:13 41.76529 -71.89578 32989 ft 562 kts 61°
2026-05-07 23:14 41.80395 -71.80492 32989 ft 562 kts 66°
2026-05-07 23:14 41.83442 -71.70940 33002 ft 560 kts 70°
2026-05-07 23:15 41.86382 -71.61314 32997 ft 560 kts 70°
2026-05-07 23:15 41.89325 -71.51643 32991 ft 559 kts 70°
2026-05-07 23:16 41.92258 -71.41966 32988 ft 560 kts 70°
2026-05-07 23:16 41.95165 -71.32342 32976 ft 559 kts 71°
2026-05-07 23:17 41.98088 -71.22631 32977 ft 560 kts 71°
2026-05-07 23:17 42.00976 -71.13002 32977 ft 558 kts 71°
2026-05-07 23:18 42.03832 -71.03441 32978 ft 561 kts 71°
2026-05-07 23:18 42.06731 -70.93702 32977 ft 559 kts 71°
2026-05-07 23:19 42.09611 -70.83993 32978 ft 559 kts 71°
2026-05-07 23:19 42.12470 -70.74314 32962 ft 560 kts 71°
2026-05-07 23:20 42.15336 -70.64579 32961 ft 558 kts 71°
2026-05-07 23:20 42.18190 -70.54845 32963 ft 559 kts 71°
2026-05-07 23:21 42.21041 -70.45084 32965 ft 559 kts 71°
2026-05-07 23:21 42.23894 -70.35283 32967 ft 560 kts 71°
2026-05-07 23:22 42.26711 -70.25568 32953 ft 557 kts 72°
2026-05-07 23:22 42.29535 -70.15784 32955 ft 561 kts 71°
2026-05-07 23:23 42.32335 -70.06055 32957 ft 558 kts 71°
2026-05-07 23:23 42.35141 -69.96262 32960 ft 560 kts 72°
2026-05-07 23:24 42.37947 -69.86436 32960 ft 558 kts 72°
2026-05-07 23:24 42.40729 -69.76653 32962 ft 558 kts 72°
2026-05-07 23:25 42.43497 -69.66881 32966 ft 558 kts 72°
2026-05-07 23:25 42.46279 -69.57018 32966 ft 559 kts 72°
2026-05-07 23:26 42.49038 -69.47204 32968 ft 559 kts 71°
2026-05-07 23:26 42.51795 -69.37357 32970 ft 559 kts 71°
2026-05-07 23:27 42.55917 -69.22563 32959 ft 558 kts 73°
2026-05-07 23:27 42.58639 -69.12741 32961 ft 559 kts 72°
2026-05-07 23:28 42.61348 -69.02933 32961 ft 557 kts 72°
2026-05-07 23:28 42.64070 -68.93034 32964 ft 558 kts 72°
2026-05-07 23:29 42.66762 -68.83205 32968 ft 559 kts 73°
2026-05-07 23:29 42.69468 -68.73286 32967 ft 557 kts 72°
2026-05-07 23:30 42.72149 -68.63421 32970 ft 558 kts 72°
2026-05-07 23:30 42.74825 -68.53532 32971 ft 559 kts 72°
2026-05-07 23:31 42.77500 -68.43609 32973 ft 558 kts 72°
2026-05-07 23:31 42.80166 -68.33677 32971 ft 559 kts 73°
2026-05-07 23:32 42.82813 -68.23778 32962 ft 558 kts 73°
2026-05-07 23:32 42.85453 -68.13863 32965 ft 558 kts 73°
2026-05-07 23:33 42.88093 -68.03905 32966 ft 558 kts 73°
2026-05-07 23:33 42.90708 -67.94003 32969 ft 558 kts 73°
2026-05-07 23:34 42.93320 -67.84071 32970 ft 559 kts 73°
2026-05-07 23:34 42.95932 -67.74102 32972 ft 557 kts 73°
2026-05-07 23:35 42.98534 -67.64124 32974 ft 559 kts 73°
2026-05-07 23:35 43.01144 -67.54073 32975 ft 557 kts 73°
2026-05-07 23:36 43.03714 -67.44138 32977 ft 559 kts 73°
2026-05-07 23:36 43.06300 -67.34099 32977 ft 557 kts 74°
2026-05-07 23:37 43.08868 -67.24086 32967 ft 557 kts 74°
2026-05-07 23:37 43.11395 -67.14188 32953 ft 558 kts 74°
2026-05-07 23:38 43.13950 -67.04140 32955 ft 558 kts 74°
2026-05-07 23:38 43.16403 -66.94130 32959 ft 557 kts 76°
2026-05-07 23:39 43.18702 -66.84029 32959 ft 556 kts 76°
2026-05-07 23:39 43.20993 -66.73933 32961 ft 558 kts 76°
2026-05-07 23:40 43.23296 -66.63772 32962 ft 556 kts 76°
2026-05-07 23:40 43.25574 -66.53687 32963 ft 556 kts 76°
2026-05-07 23:41 43.27860 -66.43521 32966 ft 558 kts 76°
2026-05-07 23:41 43.30145 -66.33325 32962 ft 557 kts 77°
2026-05-07 23:42 43.32406 -66.23188 32955 ft 557 kts 77°
2026-05-07 23:42 43.34674 -66.12972 32956 ft 557 kts 77°
2026-05-07 23:43 43.36914 -66.02840 32958 ft 556 kts 77°
2026-05-07 23:43 43.39161 -65.92620 32959 ft 557 kts 77°
2026-05-07 23:44 43.41389 -65.82445 32962 ft 556 kts 77°
2026-05-07 23:44 43.43596 -65.72315 32964 ft 557 kts 77°
2026-05-07 23:45 43.45797 -65.62164 32967 ft 556 kts 77°
2026-05-07 23:45 43.47974 -65.52078 32967 ft 555 kts 77°
2026-05-07 23:46 43.50158 -65.41910 32970 ft 557 kts 77°
2026-05-07 23:46 43.52327 -65.31760 32959 ft 557 kts 78°
2026-05-07 23:47 43.54494 -65.21570 32959 ft 555 kts 78°
2026-05-07 23:47 43.56641 -65.11424 32961 ft 557 kts 78°
2026-05-07 23:48 43.58798 -65.01184 32963 ft 556 kts 78°
2026-05-07 23:48 43.60938 -64.90974 32964 ft 555 kts 78°
2026-05-07 23:49 43.63076 -64.80718 32965 ft 556 kts 77°
2026-05-07 23:49 43.65200 -64.70486 32968 ft 556 kts 77°
2026-05-07 23:50 43.67319 -64.60221 32969 ft 556 kts 78°
2026-05-07 23:50 43.69417 -64.50005 32971 ft 555 kts 77°
2026-05-07 23:51 43.71517 -64.39729 32973 ft 556 kts 78°
2026-05-07 23:51 43.73601 -64.29481 32961 ft 556 kts 78°
2026-05-07 23:52 43.75690 -64.19157 32961 ft 555 kts 78°
2026-05-07 23:52 43.77748 -64.08928 32964 ft 556 kts 78°
2026-05-07 23:53 43.79821 -63.98577 32965 ft 556 kts 78°
2026-05-07 23:53 43.81868 -63.88300 32968 ft 556 kts 78°
2026-05-07 23:54 43.83913 -63.77983 32969 ft 555 kts 78°
2026-05-07 23:54 43.85936 -63.67720 32971 ft 555 kts 78°
2026-05-07 23:55 43.87955 -63.57422 32973 ft 557 kts 78°
2026-05-07 23:55 43.89963 -63.47129 32974 ft 554 kts 78°
2026-05-07 23:56 43.91966 -63.36803 32976 ft 555 kts 78°
2026-05-07 23:56 43.93957 -63.26488 32964 ft 555 kts 79°
2026-05-07 23:57 43.95943 -63.16145 32966 ft 556 kts 79°
2026-05-07 23:57 43.97917 -63.05806 32967 ft 555 kts 79°
2026-05-07 23:58 43.99873 -62.95506 32971 ft 555 kts 79°
2026-05-07 23:58 44.01828 -62.85154 32970 ft 556 kts 79°
2026-05-07 23:59 44.03773 -62.74799 32974 ft 555 kts 79°
2026-05-07 23:59 44.05719 -62.64386 32974 ft 554 kts 79°
2026-05-08 00:00 44.07652 -62.53986 32977 ft 557 kts 79°
2026-05-08 00:00 44.09564 -62.43637 32979 ft 555 kts 79°
2026-05-08 00:01 44.11476 -62.33235 32959 ft 554 kts 80°
2026-05-08 00:01 44.13377 -62.22830 32953 ft 554 kts 80°
2026-05-08 00:02 44.15264 -62.12441 32953 ft 555 kts 80°
2026-05-08 00:02 44.17147 -62.02023 32955 ft 554 kts 80°
2026-05-08 00:03 44.19017 -61.91612 32957 ft 555 kts 80°
2026-05-08 00:03 44.20884 -61.81166 32958 ft 554 kts 80°
2026-05-08 00:04 44.22738 -61.70725 32960 ft 553 kts 80°
2026-05-08 00:04 44.24586 -61.60259 32963 ft 554 kts 80°
2026-05-08 00:05 44.26404 -61.49902 32964 ft 555 kts 80°
2026-05-08 00:05 44.28234 -61.39421 32966 ft 554 kts 80°
2026-05-08 00:06 44.30043 -61.28996 32954 ft 554 kts 81°
2026-05-08 00:06 44.31842 -61.18568 32955 ft 555 kts 81°
2026-05-08 00:07 44.33643 -61.08071 32958 ft 554 kts 81°
2026-05-08 00:07 44.35417 -60.97665 32959 ft 555 kts 81°
2026-05-08 00:08 44.37185 -60.87230 32961 ft 554 kts 81°
2026-05-08 00:08 44.38951 -60.76747 32962 ft 554 kts 81°
2026-05-08 00:09 44.40705 -60.66270 32964 ft 554 kts 81°
2026-05-08 00:09 44.42450 -60.55785 32966 ft 554 kts 81°
2026-05-08 00:10 44.44179 -60.45332 32968 ft 554 kts 81°
2026-05-08 00:10 44.45913 -60.34787 32969 ft 554 kts 82°
2026-05-08 00:11 44.47623 -60.24323 32958 ft 553 kts 82°
2026-05-08 00:11 44.49337 -60.13769 32959 ft 553 kts 82°
2026-05-08 00:12 44.51025 -60.03309 32961 ft 553 kts 82°
2026-05-08 00:12 44.52708 -59.92815 32961 ft 552 kts 82°
2026-05-08 00:13 44.54380 -59.82319 32964 ft 553 kts 81°
2026-05-08 00:13 44.56055 -59.71741 32965 ft 552 kts 82°
2026-05-08 00:14 44.57701 -59.61277 32967 ft 553 kts 82°
2026-05-08 00:14 44.59345 -59.50761 32970 ft 554 kts 82°
2026-05-08 00:15 44.60978 -59.40246 32971 ft 553 kts 82°
2026-05-08 00:15 44.62601 -59.29735 32957 ft 552 kts 82°
2026-05-08 00:16 44.64209 -59.19246 32960 ft 552 kts 83°
2026-05-08 00:16 44.65817 -59.08686 32962 ft 554 kts 82°
2026-05-08 00:17 44.67424 -58.98065 32963 ft 552 kts 82°
2026-05-08 00:17 44.69015 -58.87484 32966 ft 552 kts 83°
2026-05-08 00:18 44.70589 -58.76937 32968 ft 553 kts 83°
2026-05-08 00:18 44.72151 -58.66407 32969 ft 553 kts 83°
2026-05-08 00:19 44.73687 -58.55975 32970 ft 552 kts 82°
2026-05-08 00:19 44.75234 -58.45401 32972 ft 552 kts 82°
2026-05-08 00:20 44.76768 -58.34846 32974 ft 553 kts 83°
2026-05-08 00:20 44.78301 -58.24229 32962 ft 551 kts 83°
2026-05-08 00:21 44.79810 -58.13698 32964 ft 552 kts 83°
2026-05-08 00:21 44.81320 -58.03081 32966 ft 552 kts 83°
2026-05-08 00:22 44.82798 -57.92631 32969 ft 548 kts 83°
2026-05-08 00:22 44.84280 -57.82053 32968 ft 554 kts 83°
2026-05-08 00:23 44.85755 -57.71477 32970 ft 551 kts 83°
2026-05-08 00:23 44.87223 -57.60865 32972 ft 552 kts 83°
2026-05-08 00:24 44.88682 -57.50241 32974 ft 552 kts 83°
2026-05-08 00:24 44.90129 -57.39630 32975 ft 551 kts 83°
2026-05-08 00:25 44.91568 -57.28999 32962 ft 553 kts 84°
2026-05-08 00:25 44.92990 -57.18418 32965 ft 550 kts 84°
2026-05-08 00:26 44.94415 -57.07729 32966 ft 552 kts 84°
2026-05-08 00:26 44.95823 -56.97093 32968 ft 551 kts 84°
2026-05-08 00:27 44.97220 -56.86460 32969 ft 550 kts 84°
2026-05-08 00:27 44.98599 -56.75882 32971 ft 551 kts 84°
2026-05-08 00:28 44.99977 -56.65234 32973 ft 552 kts 84°
2026-05-08 00:28 45.01346 -56.54570 32975 ft 552 kts 84°
2026-05-08 00:29 45.02702 -56.43931 32978 ft 551 kts 84°
2026-05-08 00:29 45.04047 -56.33291 32972 ft 552 kts 85°
2026-05-08 00:30 45.05389 -56.22590 32966 ft 551 kts 85°
2026-05-08 00:30 45.06711 -56.11971 32968 ft 551 kts 85°
2026-05-08 00:31 45.08031 -56.01272 32969 ft 551 kts 85°
2026-05-08 00:31 45.09333 -55.90653 32971 ft 550 kts 85°
2026-05-08 00:32 45.10630 -55.79974 32957 ft 551 kts 85°
2026-05-08 00:32 45.11909 -55.69355 32959 ft 552 kts 85°
2026-05-08 00:33 45.13188 -55.58655 32960 ft 550 kts 85°
2026-05-08 00:33 45.14453 -55.47977 32963 ft 552 kts 85°
2026-05-08 00:34 45.15709 -55.37306 32963 ft 549 kts 85°
2026-05-08 00:34 45.16951 -55.26639 32953 ft 552 kts 85°
2026-05-08 00:35 45.18183 -55.15982 32954 ft 551 kts 85°
2026-05-08 00:35 45.19412 -55.05270 32955 ft 549 kts 86°
2026-05-08 00:36 45.20622 -54.94618 32956 ft 550 kts 85°
2026-05-08 00:36 45.21823 -54.83956 32958 ft 550 kts 86°
2026-05-08 00:37 45.23017 -54.73256 32960 ft 551 kts 85°
2026-05-08 00:38 45.24794 -54.57175 32962 ft 550 kts 86°
2026-05-08 00:38 45.25962 -54.46478 32965 ft 551 kts 86°
2026-05-08 00:39 45.27115 -54.35825 32966 ft 550 kts 86°
2026-05-08 00:39 45.28265 -54.25102 32953 ft 550 kts 86°
2026-05-08 00:40 45.29406 -54.14373 32955 ft 549 kts 86°
2026-05-08 00:40 45.30534 -54.03655 32957 ft 550 kts 86°
2026-05-08 00:41 45.31646 -53.92997 32958 ft 550 kts 86°
2026-05-08 00:41 45.32755 -53.82271 32961 ft 549 kts 86°
2026-05-08 00:42 45.33852 -53.71554 32963 ft 550 kts 87°
2026-05-08 00:42 45.34939 -53.60835 32964 ft 549 kts 86°
2026-05-08 00:43 45.36018 -53.50090 32965 ft 549 kts 86°
2026-05-08 00:43 45.37088 -53.39326 32968 ft 550 kts 87°
2026-05-08 00:44 45.38145 -53.28607 32954 ft 548 kts 87°
2026-05-08 00:44 45.39188 -53.17897 32957 ft 550 kts 87°
2026-05-08 00:45 45.40228 -53.07142 32958 ft 548 kts 88°
2026-05-08 00:45 45.41251 -52.96427 32960 ft 549 kts 87°
2026-05-08 00:46 45.42267 -52.85686 32962 ft 549 kts 87°
2026-05-08 00:46 45.43280 -52.74868 32963 ft 549 kts 88°
2026-05-08 00:47 45.44275 -52.64126 32964 ft 547 kts 87°
2026-05-08 00:47 45.45260 -52.53377 32967 ft 549 kts 87°
2026-05-08 00:48 45.46243 -52.42541 32968 ft 550 kts 87°
2026-05-08 00:48 45.47212 -52.31753 32958 ft 549 kts 88°
2026-05-08 00:49 45.48163 -52.21035 32958 ft 547 kts 88°
2026-05-08 00:49 45.49110 -52.10239 32959 ft 549 kts 88°
2026-05-08 00:50 45.50049 -51.99430 32961 ft 549 kts 88°
2026-05-08 00:50 45.51895 -51.88855 32960 ft 557 kts 71°
2026-05-08 00:51 45.54918 -51.78663 32965 ft 560 kts 70°
2026-05-08 00:51 45.57832 -51.68405 32967 ft 559 kts 71°
2026-05-08 00:52 45.60635 -51.58093 32967 ft 558 kts 72°
2026-05-08 00:52 45.63366 -51.47757 32971 ft 559 kts 72°
2026-05-08 00:53 45.66063 -51.37369 32971 ft 557 kts 72°
2026-05-08 00:53 45.68733 -51.26949 32961 ft 557 kts 73°
2026-05-08 00:54 45.71356 -51.16620 32961 ft 558 kts 73°
2026-05-08 00:54 45.73991 -51.06168 32963 ft 558 kts 73°
2026-05-08 00:55 45.76598 -50.95765 32965 ft 557 kts 73°
2026-05-08 00:55 45.79180 -50.85406 32968 ft 559 kts 73°
2026-05-08 00:56 45.81772 -50.74955 32968 ft 557 kts 73°
2026-05-08 00:56 45.84354 -50.64489 32972 ft 559 kts 73°
2026-05-08 00:57 45.86929 -50.54005 32972 ft 557 kts 73°
2026-05-08 00:57 45.89485 -50.43546 32975 ft 557 kts 73°
2026-05-08 00:58 45.92038 -50.33051 32969 ft 556 kts 74°
2026-05-08 00:58 45.94558 -50.22643 32963 ft 558 kts 74°
2026-05-08 00:59 45.97100 -50.12097 32966 ft 557 kts 75°
2026-05-08 00:59 45.99601 -50.01669 32967 ft 557 kts 74°
2026-05-08 01:00 46.02191 -49.91188 32969 ft 558 kts 73°
2026-05-08 01:00 46.04828 -49.80722 32972 ft 558 kts 73°
2026-05-08 01:01 46.07466 -49.70185 32975 ft 558 kts 73°
2026-05-08 01:01 46.10081 -49.59677 32975 ft 557 kts 73°
2026-05-08 01:02 46.12685 -49.49160 32962 ft 558 kts 73°
2026-05-08 01:02 46.15267 -49.38677 32964 ft 557 kts 73°
2026-05-08 01:03 46.17844 -49.28166 32953 ft 558 kts 74°
2026-05-08 01:03 46.20388 -49.17739 32954 ft 556 kts 74°
2026-05-08 01:04 46.22960 -49.07142 32956 ft 558 kts 74°
2026-05-08 01:04 46.25499 -48.96639 32957 ft 556 kts 74°
2026-05-08 01:05 46.28031 -48.86107 32959 ft 559 kts 74°
2026-05-08 01:05 46.30564 -48.75526 32961 ft 557 kts 74°
2026-05-08 01:06 46.33087 -48.64933 32963 ft 557 kts 74°
2026-05-08 01:06 46.35589 -48.54380 32964 ft 558 kts 74°
2026-05-08 01:07 46.38100 -48.43741 32967 ft 557 kts 74°
2026-05-08 01:07 46.40571 -48.33215 32962 ft 557 kts 75°
2026-05-08 01:08 46.43050 -48.22604 32956 ft 557 kts 75°
2026-05-08 01:08 46.45528 -48.11947 32958 ft 558 kts 75°
2026-05-08 01:09 46.47984 -48.01337 32960 ft 557 kts 75°
2026-05-08 01:09 46.50442 -47.90656 32961 ft 556 kts 75°
2026-05-08 01:10 46.52880 -47.80018 32963 ft 556 kts 75°
2026-05-08 01:10 46.55302 -47.69392 32965 ft 557 kts 75°
2026-05-08 01:11 46.57724 -47.58716 32968 ft 557 kts 75°
2026-05-08 01:11 46.60123 -47.48090 32969 ft 557 kts 75°
2026-05-08 01:12 46.62522 -47.37408 32971 ft 557 kts 75°
2026-05-08 01:12 46.64916 -47.26696 32959 ft 556 kts 76°
2026-05-08 01:13 46.67281 -47.16055 32960 ft 556 kts 76°
2026-05-08 01:13 46.69659 -47.05306 32963 ft 557 kts 75°
2026-05-08 01:14 46.72025 -46.94556 32965 ft 555 kts 75°
2026-05-08 01:14 46.74367 -46.83859 32966 ft 556 kts 76°
2026-05-08 01:15 46.76705 -46.73124 32968 ft 557 kts 76°
2026-05-08 01:15 46.79038 -46.62362 32970 ft 555 kts 76°
2026-05-08 01:16 46.81352 -46.51627 32972 ft 557 kts 76°
2026-05-08 01:16 46.83654 -46.40894 32974 ft 556 kts 75°
2026-05-08 01:17 46.85954 -46.30116 32961 ft 555 kts 77°
2026-05-08 01:17 46.88231 -46.19386 32964 ft 556 kts 77°
2026-05-08 01:18 46.90509 -46.08594 32966 ft 556 kts 77°
2026-05-08 01:18 46.92767 -45.97839 32968 ft 556 kts 77°
2026-05-08 01:19 46.95018 -45.87065 32970 ft 555 kts 77°
2026-05-08 01:19 46.97274 -45.76202 32971 ft 558 kts 76°
2026-05-08 01:20 46.99494 -45.65462 32972 ft 555 kts 76°
2026-05-08 01:20 47.01721 -45.54626 32975 ft 557 kts 76°
2026-05-08 01:21 47.03937 -45.43787 32977 ft 556 kts 77°
2026-05-08 01:21 47.06141 -45.32947 32971 ft 555 kts 77°
2026-05-08 01:22 47.08331 -45.22115 32968 ft 556 kts 77°
2026-05-08 01:22 47.10493 -45.11366 32957 ft 555 kts 77°
2026-05-08 01:23 47.12674 -45.00458 32956 ft 556 kts 77°
2026-05-08 01:23 47.14837 -44.89583 32956 ft 555 kts 77°
2026-05-08 01:24 47.16979 -44.78750 32959 ft 556 kts 77°
2026-05-08 01:24 47.19125 -44.67809 32960 ft 554 kts 77°
2026-05-08 01:25 47.21256 -44.56924 32963 ft 556 kts 77°
2026-05-08 01:25 47.23386 -44.45980 32964 ft 555 kts 77°
2026-05-08 01:26 47.25497 -44.35063 32965 ft 555 kts 77°
2026-05-08 01:26 47.27596 -44.24150 32953 ft 554 kts 78°
2026-05-08 01:27 47.29682 -44.13237 32956 ft 554 kts 78°
2026-05-08 01:27 47.31751 -44.02354 32958 ft 554 kts 78°
2026-05-08 01:28 47.33814 -43.91434 32959 ft 555 kts 78°
2026-05-08 01:28 47.35865 -43.80516 32961 ft 554 kts 78°
2026-05-08 01:29 47.37911 -43.69558 32964 ft 556 kts 78°
2026-05-08 01:29 47.39952 -43.58565 32966 ft 555 kts 78°
2026-05-08 01:30 47.41977 -43.47594 32966 ft 556 kts 78°
2026-05-08 01:30 47.43998 -43.36582 32968 ft 554 kts 78°
2026-05-08 01:31 47.45991 -43.25651 32957 ft 555 kts 79°
2026-05-08 01:31 47.47986 -43.14646 32958 ft 554 kts 79°
2026-05-08 01:32 47.49970 -43.03639 32961 ft 555 kts 79°
2026-05-08 01:32 47.51946 -42.92603 32963 ft 555 kts 79°
2026-05-08 01:33 47.53893 -42.81663 32963 ft 554 kts 79°
2026-05-08 01:33 47.55851 -42.70594 32966 ft 555 kts 79°
2026-05-08 01:34 47.57776 -42.59652 32968 ft 554 kts 79°
2026-05-08 01:34 47.59705 -42.48611 32969 ft 555 kts 79°
2026-05-08 01:35 47.61625 -42.37551 32971 ft 554 kts 79°
2026-05-08 01:35 47.63526 -42.26539 32960 ft 554 kts 80°
2026-05-08 01:36 47.65423 -42.15477 32961 ft 553 kts 80°
2026-05-08 01:36 47.67300 -42.04459 32963 ft 554 kts 80°
2026-05-08 01:37 47.69173 -41.93397 32965 ft 554 kts 80°
2026-05-08 01:37 47.71035 -41.82330 32966 ft 554 kts 80°
2026-05-08 01:38 47.72881 -41.71287 32968 ft 555 kts 80°
2026-05-08 01:38 47.74731 -41.60144 32970 ft 554 kts 80°
2026-05-08 01:39 47.76549 -41.49128 32972 ft 555 kts 80°
2026-05-08 01:39 47.78366 -41.38041 32973 ft 553 kts 80°
2026-05-08 01:40 47.80180 -41.26908 32963 ft 553 kts 81°
2026-05-08 01:40 47.81972 -41.15825 32963 ft 553 kts 81°
2026-05-08 01:41 47.83756 -41.04725 32965 ft 552 kts 81°
2026-05-08 01:41 47.85525 -40.93644 32968 ft 553 kts 81°
2026-05-08 01:42 47.87289 -40.82515 32969 ft 553 kts 81°
2026-05-08 01:42 47.89027 -40.71476 32970 ft 552 kts 81°
2026-05-08 01:43 47.90778 -40.60283 32973 ft 553 kts 81°
2026-05-08 01:43 47.92495 -40.49226 32974 ft 553 kts 81°
2026-05-08 01:44 47.94230 -40.37987 32976 ft 553 kts 81°
2026-05-08 01:44 47.95927 -40.26904 32965 ft 552 kts 81°
2026-05-08 01:45 47.97620 -40.15778 32967 ft 553 kts 82°
2026-05-08 01:45 47.99283 -40.04773 32967 ft 552 kts 82°
2026-05-08 01:46 48.01176 -39.93691 32969 ft 556 kts 73°
2026-05-08 01:46 48.04015 -39.82918 32972 ft 559 kts 71°
2026-05-08 01:47 48.06820 -39.72190 32974 ft 558 kts 72°
2026-05-08 01:47 48.09571 -39.61424 32975 ft 558 kts 72°
2026-05-08 01:48 48.13654 -39.45146 32962 ft 558 kts 72°
2026-05-08 01:48 48.16332 -39.34333 32963 ft 557 kts 73°
2026-05-08 01:49 48.19004 -39.23460 32953 ft 557 kts 73°
2026-05-08 01:49 48.21666 -39.12561 32955 ft 556 kts 73°
2026-05-08 01:50 48.24310 -39.01664 32956 ft 558 kts 73°
2026-05-08 01:50 48.26940 -38.90773 32959 ft 558 kts 73°
2026-05-08 01:51 48.29561 -38.79860 32960 ft 556 kts 73°
2026-05-08 01:51 48.32178 -38.68903 32963 ft 558 kts 73°
2026-05-08 01:52 48.34761 -38.58039 32965 ft 557 kts 73°
2026-05-08 01:52 48.37359 -38.47054 32966 ft 558 kts 73°
2026-05-08 01:53 48.39928 -38.36138 32967 ft 556 kts 73°
2026-05-08 01:53 48.42497 -38.25166 32956 ft 557 kts 74°
2026-05-08 01:54 48.45060 -38.14162 32958 ft 557 kts 74°
2026-05-08 01:54 48.47599 -38.03205 32959 ft 556 kts 74°
2026-05-08 01:55 48.50133 -37.92216 32962 ft 557 kts 74°
2026-05-08 01:55 48.52649 -37.81244 32964 ft 558 kts 74°
2026-05-08 01:56 48.55179 -37.70160 32965 ft 556 kts 74°
2026-05-08 01:56 48.57678 -37.59151 32967 ft 556 kts 74°
2026-05-08 01:57 48.60171 -37.48115 32969 ft 555 kts 74°
2026-05-08 01:57 48.62650 -37.37075 32971 ft 557 kts 74°
2026-05-08 01:58 48.65120 -37.26030 32959 ft 555 kts 75°
2026-05-08 01:58 48.67576 -37.14979 32961 ft 556 kts 75°
2026-05-08 01:59 48.70027 -37.03896 32963 ft 556 kts 75°
2026-05-08 01:59 48.72458 -36.92841 32965 ft 556 kts 75°
2026-05-08 02:00 48.74879 -36.81779 32967 ft 556 kts 75°
2026-05-08 02:00 48.77288 -36.70710 32969 ft 556 kts 75°
2026-05-08 02:01 48.79687 -36.59626 32971 ft 555 kts 75°
2026-05-08 02:01 48.82086 -36.48482 32973 ft 556 kts 75°
2026-05-08 02:02 48.84467 -36.37360 32974 ft 556 kts 75°
2026-05-08 02:02 48.86840 -36.26220 32963 ft 555 kts 76°
2026-05-08 02:03 48.89189 -36.15128 32965 ft 556 kts 76°
2026-05-08 02:03 48.91536 -36.03986 32967 ft 555 kts 76°
2026-05-08 02:04 48.93866 -35.92865 32969 ft 555 kts 76°
2026-05-08 02:04 48.96191 -35.81705 32971 ft 555 kts 76°
2026-05-08 02:05 48.98497 -35.70571 32973 ft 554 kts 76°
2026-05-08 02:05 49.00810 -35.59346 32975 ft 556 kts 76°
2026-05-08 02:06 49.03098 -35.48177 32976 ft 555 kts 76°
2026-05-08 02:06 49.05365 -35.37046 32978 ft 555 kts 76°
2026-05-08 02:07 49.07631 -35.25862 32966 ft 553 kts 77°
2026-05-08 02:07 49.09891 -35.14637 32968 ft 555 kts 76°
2026-05-08 02:08 49.12134 -35.03437 32955 ft 555 kts 77°
2026-05-08 02:08 49.14367 -34.92222 32956 ft 555 kts 77°
2026-05-08 02:09 49.16595 -34.80965 32958 ft 555 kts 76°
2026-05-08 02:09 49.18818 -34.69672 32960 ft 555 kts 77°
2026-05-08 02:10 49.21026 -34.58388 32961 ft 553 kts 77°
2026-05-08 02:10 49.23210 -34.47156 32964 ft 556 kts 77°
2026-05-08 02:11 49.25394 -34.35866 32965 ft 553 kts 76°
2026-05-08 02:11 49.27568 -34.24550 32953 ft 554 kts 77°
2026-05-08 02:12 49.29726 -34.13258 32956 ft 554 kts 78°
2026-05-08 02:12 49.31875 -34.01944 32957 ft 554 kts 78°
2026-05-08 02:13 49.34021 -33.90579 32959 ft 553 kts 77°
2026-05-08 02:13 49.36142 -33.79277 32961 ft 554 kts 77°
2026-05-08 02:14 49.38241 -33.68019 32963 ft 554 kts 78°
2026-05-08 02:14 49.40355 -33.56615 32964 ft 553 kts 77°
2026-05-08 02:15 49.42439 -33.45306 32967 ft 554 kts 77°
2026-05-08 02:15 49.44517 -33.33953 32967 ft 555 kts 78°
2026-05-08 02:16 49.46593 -33.22546 32957 ft 555 kts 78°
2026-05-08 02:16 49.48640 -33.11230 32959 ft 553 kts 78°
2026-05-08 02:17 49.50683 -32.99860 32961 ft 554 kts 78°
2026-05-08 02:17 49.52719 -32.88461 32963 ft 554 kts 78°
2026-05-08 02:18 49.54742 -32.77060 32964 ft 553 kts 78°
2026-05-08 02:18 49.56757 -32.65629 32967 ft 554 kts 78°
2026-05-08 02:19 49.58751 -32.54248 32968 ft 555 kts 78°
2026-05-08 02:19 49.60748 -32.42780 32970 ft 554 kts 78°
2026-05-08 02:20 49.62707 -32.31448 32960 ft 553 kts 79°
2026-05-08 02:20 49.64695 -32.19882 32960 ft 552 kts 79°
2026-05-08 02:21 49.66638 -32.08494 32962 ft 553 kts 79°
2026-05-08 02:21 49.68585 -31.97015 32965 ft 552 kts 79°
2026-05-08 02:22 49.70504 -31.85619 32966 ft 553 kts 79°
2026-05-08 02:22 49.72432 -31.74103 32967 ft 552 kts 79°
2026-05-08 02:23 49.74329 -31.62685 32970 ft 553 kts 79°
2026-05-08 02:23 49.76226 -31.51196 32971 ft 553 kts 79°
2026-05-08 02:24 49.78104 -31.39741 32972 ft 553 kts 79°
2026-05-08 02:24 49.79977 -31.28248 32963 ft 552 kts 80°
2026-05-08 02:25 49.81837 -31.16746 32964 ft 552 kts 80°
2026-05-08 02:25 49.83699 -31.05150 32965 ft 552 kts 80°
2026-05-08 02:26 49.85537 -30.93633 32966 ft 552 kts 80°
2026-05-08 02:26 49.87355 -30.82153 32970 ft 553 kts 80°
2026-05-08 02:27 49.89167 -30.70633 32971 ft 552 kts 80°
2026-05-08 02:27 49.90976 -30.59054 32972 ft 552 kts 80°
2026-05-08 02:28 49.92762 -30.47535 32975 ft 553 kts 80°
2026-05-08 02:28 49.94541 -30.35986 32976 ft 551 kts 80°
2026-05-08 02:29 49.96304 -30.24453 32965 ft 552 kts 81°
2026-05-08 02:29 49.98053 -30.12929 32966 ft 550 kts 81°
2026-05-08 02:30 49.99793 -30.01377 32968 ft 551 kts 81°
2026-05-08 02:30 50.02095 -29.89992 32977 ft 557 kts 70°
2026-05-08 02:31 50.05044 -29.78930 32973 ft 557 kts 70°
2026-05-08 02:31 50.07944 -29.67766 32974 ft 556 kts 71°
2026-05-08 02:32 50.10784 -29.56602 32964 ft 558 kts 71°
2026-05-08 02:32 50.13583 -29.45435 32963 ft 556 kts 71°
2026-05-08 02:33 50.16366 -29.34219 32963 ft 556 kts 72°
2026-05-08 02:33 50.19132 -29.22976 32954 ft 557 kts 72°
2026-05-08 02:34 50.21886 -29.11701 32955 ft 557 kts 72°
2026-05-08 02:34 50.24633 -29.00388 32957 ft 556 kts 72°
2026-05-08 02:35 50.27352 -28.89124 32958 ft 557 kts 72°
2026-05-08 02:35 50.30059 -28.77850 32960 ft 555 kts 72°
2026-05-08 02:36 50.32767 -28.66505 32963 ft 556 kts 72°
2026-05-08 02:36 50.35463 -28.55156 32964 ft 557 kts 72°
2026-05-08 02:37 50.38157 -28.43755 32966 ft 556 kts 72°
2026-05-08 02:37 50.40823 -28.32409 32959 ft 556 kts 73°
2026-05-08 02:38 50.43468 -28.21093 32957 ft 555 kts 73°
2026-05-08 02:38 50.46103 -28.09757 32959 ft 556 kts 73°
2026-05-08 02:39 50.48747 -27.98328 32962 ft 557 kts 73°
2026-05-08 02:39 50.51350 -27.87011 32963 ft 555 kts 73°
2026-05-08 02:40 50.53967 -27.75575 32965 ft 557 kts 73°
2026-05-08 02:40 50.56551 -27.64219 32966 ft 556 kts 73°
2026-05-08 02:41 50.59130 -27.52829 32967 ft 554 kts 73°
2026-05-08 02:41 50.61714 -27.41352 32971 ft 556 kts 73°
2026-05-08 02:42 50.64269 -27.29942 32959 ft 554 kts 74°
2026-05-08 02:42 50.66808 -27.18542 32961 ft 555 kts 74°
2026-05-08 02:43 50.69347 -27.07077 32963 ft 554 kts 74°
2026-05-08 02:43 50.71853 -26.95698 32966 ft 556 kts 74°
2026-05-08 02:44 50.74380 -26.84165 32967 ft 555 kts 74°
2026-05-08 02:44 50.76874 -26.72716 32968 ft 554 kts 74°
2026-05-08 02:45 50.79369 -26.61198 32971 ft 556 kts 74°
2026-05-08 02:45 50.81859 -26.49637 32972 ft 555 kts 74°
2026-05-08 02:46 50.84320 -26.38149 32975 ft 555 kts 74°
2026-05-08 02:46 50.86769 -26.26647 32964 ft 554 kts 75°
2026-05-08 02:47 50.89222 -26.15065 32965 ft 555 kts 75°
2026-05-08 02:47 50.91647 -26.03551 32967 ft 554 kts 75°
2026-05-08 02:48 50.94065 -25.91999 32968 ft 554 kts 75°
2026-05-08 02:48 50.96472 -25.80436 32970 ft 554 kts 75°
2026-05-08 02:49 50.98872 -25.68840 32973 ft 555 kts 75°
2026-05-08 02:49 51.01247 -25.57301 32974 ft 553 kts 75°
2026-05-08 02:50 51.03620 -25.45697 32975 ft 554 kts 75°
2026-05-08 02:50 51.05995 -25.34019 32977 ft 556 kts 76°
2026-05-08 02:51 51.08355 -25.22345 32966 ft 552 kts 76°
2026-05-08 02:51 51.10680 -25.10776 32954 ft 553 kts 76°
2026-05-08 02:52 51.13014 -24.99092 32955 ft 554 kts 76°
2026-05-08 02:52 51.15327 -24.87445 32957 ft 554 kts 76°
2026-05-08 02:53 51.17617 -24.75838 32960 ft 555 kts 76°
2026-05-08 02:53 51.19921 -24.64098 32960 ft 554 kts 76°
2026-05-08 02:54 51.22206 -24.52380 32963 ft 554 kts 76°
2026-05-08 02:54 51.24470 -24.40700 32965 ft 554 kts 76°
2026-05-08 02:55 51.27860 -24.23073 32955 ft 553 kts 77°
2026-05-08 02:56 51.30102 -24.11323 32956 ft 552 kts 77°
2026-05-08 02:56 51.32331 -23.99570 32958 ft 554 kts 77°
2026-05-08 02:57 51.34536 -23.87873 32961 ft 553 kts 77°
2026-05-08 02:57 51.36747 -23.76065 32962 ft 554 kts 77°
2026-05-08 02:58 51.38924 -23.64369 32963 ft 552 kts 77°
2026-05-08 02:58 51.41098 -23.52613 32965 ft 553 kts 77°
2026-05-08 02:59 51.43263 -23.40828 32968 ft 554 kts 77°
2026-05-08 02:59 51.45413 -23.29054 32957 ft 553 kts 78°
2026-05-08 03:00 51.47551 -23.17267 32959 ft 553 kts 78°
2026-05-08 03:00 51.49678 -23.05470 32960 ft 552 kts 78°
2026-05-08 03:01 51.51791 -22.93663 32962 ft 554 kts 78°
2026-05-08 03:01 51.53896 -22.81832 32964 ft 554 kts 77°
2026-05-08 03:02 51.56002 -22.69918 32966 ft 553 kts 77°
2026-05-08 03:02 51.58082 -22.58068 32968 ft 553 kts 77°
2026-05-08 03:03 51.60144 -22.46246 32970 ft 552 kts 78°
2026-05-08 03:03 51.62206 -22.34343 32970 ft 552 kts 78°
2026-05-08 03:04 51.64244 -22.22498 32960 ft 551 kts 78°
2026-05-08 03:04 51.66263 -22.10679 32962 ft 552 kts 78°
2026-05-08 03:05 51.68293 -21.98719 32963 ft 551 kts 79°
2026-05-08 03:05 51.70288 -21.86886 32965 ft 552 kts 78°
2026-05-08 03:06 51.72286 -21.74953 32967 ft 551 kts 78°
2026-05-08 03:06 51.74276 -21.62985 32969 ft 552 kts 79°
2026-05-08 03:07 51.76246 -21.51048 32972 ft 553 kts 79°
2026-05-08 03:07 51.78201 -21.39124 32974 ft 551 kts 79°
2026-05-08 03:08 51.80146 -21.27175 32963 ft 551 kts 79°
2026-05-08 03:08 51.82076 -21.15237 32964 ft 550 kts 79°
2026-05-08 03:09 51.83987 -21.03328 32966 ft 551 kts 80°
2026-05-08 03:09 51.85893 -20.91366 32968 ft 551 kts 79°
2026-05-08 03:10 51.87786 -20.79396 32969 ft 550 kts 79°
2026-05-08 03:10 51.89667 -20.67419 32971 ft 552 kts 79°
2026-05-08 03:11 51.91539 -20.55411 32974 ft 552 kts 79°
2026-05-08 03:11 51.93398 -20.43400 32975 ft 552 kts 79°
2026-05-08 03:12 51.95257 -20.31297 32965 ft 551 kts 80°
2026-05-08 03:12 51.97080 -20.19342 32967 ft 551 kts 81°
2026-05-08 03:13 51.98902 -20.07290 32967 ft 551 kts 81°
2026-05-08 03:13 51.99832 -19.95208 32970 ft 542 kts 92°
2026-05-08 03:14 52.00200 -19.83004 32971 ft 541 kts 93°
2026-05-08 03:14 52.00498 -19.70847 32972 ft 541 kts 94°
2026-05-08 03:15 52.00756 -19.58677 32974 ft 541 kts 94°
2026-05-08 03:15 52.00986 -19.46460 32976 ft 540 kts 94°
2026-05-08 03:16 52.01192 -19.34332 32977 ft 542 kts 95°
2026-05-08 03:16 52.01384 -19.22170 32967 ft 539 kts 95°
2026-05-08 03:17 52.01558 -19.10024 32967 ft 540 kts 95°
2026-05-08 03:17 52.01718 -18.97880 32969 ft 539 kts 95°
2026-05-08 03:18 52.01865 -18.85751 32970 ft 539 kts 95°
2026-05-08 03:18 52.01999 -18.73633 32973 ft 539 kts 95°
2026-05-08 03:19 52.02119 -18.61452 32975 ft 541 kts 95°
2026-05-08 03:19 52.02228 -18.49284 32975 ft 541 kts 95°
2026-05-08 03:20 52.02325 -18.37150 32977 ft 538 kts 95°
2026-05-08 03:20 52.02408 -18.25023 32966 ft 539 kts 96°
2026-05-08 03:21 52.02479 -18.12949 32967 ft 539 kts 96°
2026-05-08 03:21 52.02537 -18.00836 32969 ft 539 kts 96°
2026-05-08 03:22 52.02583 -17.88654 32971 ft 540 kts 96°
2026-05-08 03:22 52.02616 -17.76580 32972 ft 539 kts 96°
2026-05-08 03:23 52.02638 -17.64475 32973 ft 537 kts 96°
2026-05-08 03:23 52.02646 -17.52278 32976 ft 538 kts 96°
2026-05-08 03:24 52.02642 -17.40168 32977 ft 538 kts 96°
2026-05-08 03:24 52.02627 -17.28060 32966 ft 536 kts 97°
2026-05-08 03:25 52.02597 -17.15990 32966 ft 538 kts 97°
2026-05-08 03:25 52.02556 -17.03809 32969 ft 537 kts 97°
2026-05-08 03:26 52.02503 -16.91744 32970 ft 537 kts 97°
2026-05-08 03:26 52.02437 -16.79676 32973 ft 538 kts 97°
2026-05-08 03:27 52.02359 -16.67560 32973 ft 538 kts 97°
2026-05-08 03:27 52.02269 -16.55469 32974 ft 536 kts 97°
2026-05-08 03:28 52.02164 -16.43334 32976 ft 538 kts 97°
2026-05-08 03:28 52.02049 -16.31228 32966 ft 537 kts 97°
2026-05-08 03:29 52.01922 -16.19196 32966 ft 538 kts 97°
2026-05-08 03:29 52.01781 -16.07037 32967 ft 537 kts 97°
2026-05-08 03:30 52.01548 -15.88920 32971 ft 536 kts 98°
2026-05-08 03:31 52.01194 -15.64753 32973 ft 536 kts 98°
2026-05-08 03:32 52.00896 -15.46660 32975 ft 538 kts 97°
2026-05-08 03:32 52.00682 -15.34639 32976 ft 537 kts 98°
2026-05-08 03:33 52.00457 -15.22602 32967 ft 536 kts 98°
2026-05-08 03:33 52.00219 -15.10540 32967 ft 536 kts 98°
2026-05-08 03:34 51.99969 -14.98462 32966 ft 537 kts 98°
2026-05-08 03:34 51.99993 -14.86379 32970 ft 539 kts 96°
2026-05-08 03:35 52.00048 -14.74269 32971 ft 540 kts 95°
2026-05-08 03:35 52.00081 -14.62177 32973 ft 537 kts 96°
2026-05-08 03:36 52.00095 -14.50461 32975 ft 538 kts 96°
2026-05-08 03:36 52.00093 -14.38433 32976 ft 539 kts 96°
2026-05-08 03:37 52.00079 -14.26396 32966 ft 537 kts 97°
2026-05-08 03:37 52.00049 -14.14268 32965 ft 537 kts 97°
2026-05-08 03:38 51.98996 -14.02573 32963 ft 521 kts 116°
2026-05-08 03:38 51.97714 -13.97096 32965 ft 509 kts 124°
2026-05-08 03:38 51.96026 -13.92145 32963 ft 494 kts 133°
2026-05-08 03:39 51.92155 -13.82953 32972 ft 493 kts 135°
2026-05-08 03:39 51.88242 -13.73969 32970 ft 491 kts 135°
2026-05-08 03:40 51.84277 -13.65018 32971 ft 490 kts 135°
2026-05-08 03:40 51.80281 -13.56095 32971 ft 491 kts 135°
2026-05-08 03:41 51.76262 -13.47181 32972 ft 492 kts 135°
2026-05-08 03:41 51.72222 -13.38268 32973 ft 491 kts 135°
2026-05-08 03:42 51.68201 -13.29439 32961 ft 490 kts 136°
2026-05-08 03:42 51.64171 -13.20626 32959 ft 488 kts 136°
2026-05-08 03:43 51.60139 -13.11843 32962 ft 491 kts 136°
2026-05-08 03:43 51.56099 -13.03067 32962 ft 488 kts 136°
2026-05-08 03:44 51.52040 -12.94287 32962 ft 489 kts 136°
2026-05-08 03:44 51.47991 -12.85556 32963 ft 489 kts 136°
2026-05-08 03:45 51.43943 -12.76859 32963 ft 489 kts 136°
2026-05-08 03:45 51.39870 -12.68137 32964 ft 490 kts 136°
2026-05-08 03:46 51.35806 -12.59462 32964 ft 489 kts 136°
2026-05-08 03:46 51.31731 -12.50795 32964 ft 489 kts 136°
2026-05-08 03:47 51.27669 -12.42180 32964 ft 486 kts 136°
2026-05-08 03:47 51.23595 -12.33576 32960 ft 491 kts 137°
2026-05-08 03:48 51.19506 -12.24959 32953 ft 485 kts 137°
2026-05-08 03:48 51.15419 -12.16383 32954 ft 488 kts 137°
2026-05-08 03:49 51.11299 -12.07764 32954 ft 487 kts 137°
2026-05-08 03:49 51.07222 -11.99259 32955 ft 485 kts 137°
2026-05-08 03:50 51.03099 -11.90696 32954 ft 488 kts 137°
2026-05-08 03:50 50.99013 -11.82226 32954 ft 487 kts 137°
2026-05-08 03:51 50.94868 -11.73669 32955 ft 487 kts 137°
2026-05-08 03:51 50.90745 -11.65183 32956 ft 486 kts 137°
2026-05-08 03:52 50.86615 -11.56715 32973 ft 490 kts 137°
2026-05-08 03:52 50.82466 -11.48226 32974 ft 487 kts 137°
2026-05-08 03:53 50.78323 -11.39785 32974 ft 489 kts 137°
2026-05-08 03:53 50.74159 -11.31323 32960 ft 485 kts 138°
2026-05-08 03:54 50.70010 -11.22924 32961 ft 488 kts 138°
2026-05-08 03:54 50.65856 -11.14536 32961 ft 484 kts 138°
2026-05-08 03:55 50.61693 -11.06166 32961 ft 487 kts 138°
2026-05-08 03:55 50.57528 -10.97809 32962 ft 485 kts 138°
2026-05-08 03:56 50.53357 -10.89475 32963 ft 487 kts 138°
2026-05-08 03:56 50.49180 -10.81147 32963 ft 484 kts 138°
2026-05-08 03:57 50.44994 -10.72836 32964 ft 487 kts 138°
2026-05-08 03:57 50.40818 -10.64564 32964 ft 485 kts 138°
2026-05-08 03:58 50.36599 -10.56240 32966 ft 487 kts 138°
2026-05-08 03:58 50.32415 -10.48009 32967 ft 487 kts 138°
2026-05-08 03:59 50.28212 -10.39761 32965 ft 484 kts 138°
2026-05-08 03:59 50.24231 -10.31980 32954 ft 486 kts 139°
2026-05-08 04:00 50.20043 -10.23814 32955 ft 485 kts 139°
2026-05-08 04:00 50.15812 -10.15596 32954 ft 486 kts 139°
2026-05-08 04:01 50.11613 -10.07457 32954 ft 483 kts 139°
2026-05-08 04:01 50.07408 -9.99339 32955 ft 485 kts 139°
2026-05-08 04:02 50.03169 -9.91176 32955 ft 483 kts 139°
2026-05-08 04:02 49.98949 -9.83079 32956 ft 484 kts 139°
2026-05-08 04:03 49.94726 -9.75000 32955 ft 484 kts 139°
2026-05-08 04:03 49.88354 -9.62854 32971 ft 483 kts 139°
2026-05-08 04:04 49.84075 -9.54731 32972 ft 484 kts 139°
2026-05-08 04:04 49.79859 -9.46750 32974 ft 484 kts 139°
2026-05-08 04:05 49.75604 -9.38722 32972 ft 483 kts 139°
2026-05-08 04:05 49.71324 -9.30669 32961 ft 482 kts 140°
2026-05-08 04:06 49.67069 -9.22691 32961 ft 485 kts 140°
2026-05-08 04:06 49.62803 -9.14711 32961 ft 482 kts 140°
2026-05-08 04:07 49.58519 -9.06725 32961 ft 481 kts 140°
2026-05-08 04:07 49.54256 -8.98808 32963 ft 485 kts 140°
2026-05-08 04:08 49.49974 -8.90869 32961 ft 481 kts 140°
2026-05-08 04:08 49.45692 -8.82962 32963 ft 485 kts 140°
2026-05-08 04:09 49.41369 -8.74999 32964 ft 484 kts 140°
2026-05-08 04:09 49.37096 -8.67149 32964 ft 482 kts 140°
2026-05-08 04:10 49.32791 -8.59270 32963 ft 482 kts 140°
2026-05-08 04:10 49.28457 -8.51362 32965 ft 484 kts 140°
2026-05-08 04:11 49.24152 -8.43526 32965 ft 483 kts 140°
2026-05-08 04:11 49.19833 -8.35687 32965 ft 482 kts 140°
2026-05-08 04:12 49.15498 -8.27846 32953 ft 482 kts 141°
2026-05-08 04:12 49.11179 -8.20057 32952 ft 482 kts 140°
2026-05-08 04:13 49.06858 -8.12284 32953 ft 480 kts 141°
2026-05-08 04:13 49.02684 -8.04334 32946 ft 492 kts 132°
2026-05-08 04:14 49.01038 -7.99684 32948 ft 506 kts 123°
2026-05-08 04:14 48.99835 -7.94580 32949 ft 519 kts 113°
2026-05-08 04:14 48.99148 -7.89171 32948 ft 530 kts 103°
2026-05-08 04:14 48.99003 -7.83585 32951 ft 538 kts 94°
2026-05-08 04:15 48.99565 -7.72217 32958 ft 542 kts 91°
2026-05-08 04:15 49.00000 -7.60846 32959 ft 539 kts 93°
2026-05-08 04:16 48.99808 -7.49601 32958 ft 526 kts 106°
2026-05-08 04:16 48.98999 -7.44229 32960 ft 515 kts 115°
2026-05-08 04:16 48.97876 -7.39115 32965 ft 514 kts 117°
2026-05-08 04:17 48.95484 -7.28834 32948 ft 512 kts 118°
2026-05-08 04:17 48.93097 -7.18737 32951 ft 513 kts 118°
2026-05-08 04:18 48.90671 -7.08573 32952 ft 512 kts 119°
2026-05-08 04:18 48.88228 -6.98412 32966 ft 511 kts 119°
2026-05-08 04:19 48.85789 -6.88328 32969 ft 511 kts 119°
2026-05-08 04:19 48.83343 -6.78267 32969 ft 509 kts 119°
2026-05-08 04:20 48.80876 -6.68176 32970 ft 511 kts 119°
2026-05-08 04:20 48.78418 -6.58167 32971 ft 511 kts 119°
2026-05-08 04:21 48.75915 -6.48024 32971 ft 513 kts 119°
2026-05-08 04:21 48.73428 -6.37980 32973 ft 508 kts 119°
2026-05-08 04:22 48.70916 -6.27900 32962 ft 512 kts 120°
2026-05-08 04:22 48.68420 -6.17911 32962 ft 509 kts 120°
2026-05-08 04:23 48.65890 -6.07843 32963 ft 508 kts 120°
2026-05-08 04:23 48.63374 -5.97873 32964 ft 511 kts 120°
2026-05-08 04:24 48.60842 -5.87882 32964 ft 509 kts 120°
2026-05-08 04:24 48.58309 -5.77929 32964 ft 508 kts 120°
2026-05-08 04:25 48.55770 -5.68003 32966 ft 509 kts 120°
2026-05-08 04:25 48.53216 -5.58059 32967 ft 511 kts 120°
2026-05-08 04:26 48.50643 -5.48083 32969 ft 511 kts 120°
2026-05-08 04:26 48.48083 -5.38198 32970 ft 510 kts 120°
2026-05-08 04:27 48.45511 -5.28309 32958 ft 509 kts 121°
2026-05-08 04:27 48.42910 -5.18359 32958 ft 509 kts 120°
2026-05-08 04:28 48.40319 -5.08485 32959 ft 508 kts 121°
2026-05-08 04:28 48.37725 -4.98646 32959 ft 511 kts 120°
2026-05-08 04:29 48.35182 -4.89030 32961 ft 508 kts 121°
2026-05-08 04:29 48.32587 -4.79264 32966 ft 508 kts 121°
2026-05-08 04:30 48.30163 -4.70182 32966 ft 508 kts 121°
2026-05-08 04:30 48.27566 -4.60490 32972 ft 509 kts 121°
2026-05-08 04:31 48.24946 -4.50750 32977 ft 508 kts 121°
2026-05-08 04:31 48.22309 -4.40988 32981 ft 507 kts 121°
2026-05-08 04:32 48.19675 -4.31284 32967 ft 509 kts 121°
2026-05-08 04:32 48.16996 -4.21442 32974 ft 508 kts 121°
2026-05-08 04:33 48.14310 -4.11626 32976 ft 508 kts 121°
2026-05-08 04:33 48.11644 -4.01914 32977 ft 506 kts 121°
2026-05-08 04:34 48.08960 -3.92191 32981 ft 508 kts 121°
2026-05-08 04:34 48.06256 -3.82424 32986 ft 507 kts 121°
2026-05-08 04:35 48.03562 -3.72731 32993 ft 505 kts 121°
2026-05-08 04:35 48.00838 -3.62981 32989 ft 508 kts 121°
2026-05-08 04:36 47.98140 -3.53354 32982 ft 507 kts 121°
2026-05-08 04:36 47.95393 -3.43595 32979 ft 508 kts 121°
2026-05-08 04:37 47.92690 -3.34032 32977 ft 508 kts 122°
2026-05-08 04:37 47.90024 -3.24630 32966 ft 503 kts 122°
2026-05-08 04:38 47.87284 -3.15022 32982 ft 507 kts 122°
2026-05-08 04:38 47.84541 -3.05423 32984 ft 505 kts 122°
2026-05-08 04:39 47.81871 -2.96127 32983 ft 506 kts 122°
2026-05-08 04:39 47.79120 -2.86576 32986 ft 504 kts 122°
2026-05-08 04:40 47.76350 -2.77011 32989 ft 506 kts 122°
2026-05-08 04:40 47.73578 -2.67468 32990 ft 506 kts 122°
2026-05-08 04:41 47.70802 -2.57949 32988 ft 506 kts 122°
2026-05-08 04:41 47.67720 -2.48707 32987 ft 494 kts 131°
2026-05-08 04:42 47.63995 -2.40252 32983 ft 490 kts 133°
2026-05-08 04:42 47.60193 -2.31781 32966 ft 491 kts 134°
2026-05-08 04:43 47.56427 -2.23445 32968 ft 489 kts 134°
2026-05-08 04:43 47.52651 -2.15132 32967 ft 489 kts 134°
2026-05-08 04:44 47.48853 -2.06806 32965 ft 488 kts 134°
2026-05-08 04:44 47.45042 -1.98485 32964 ft 490 kts 134°
2026-05-08 04:45 47.41233 -1.90192 32965 ft 488 kts 134°
2026-05-08 04:45 47.37437 -1.81958 32966 ft 490 kts 134°
2026-05-08 04:46 47.33611 -1.73677 32965 ft 488 kts 134°
2026-05-08 04:46 47.29781 -1.65420 32968 ft 491 kts 134°
2026-05-08 04:47 47.25944 -1.57167 32967 ft 490 kts 134°
2026-05-08 04:47 47.22104 -1.48934 32965 ft 488 kts 134°
2026-05-08 04:48 47.18228 -1.40651 32971 ft 489 kts 134°
2026-05-08 04:48 47.14374 -1.32438 32962 ft 487 kts 135°
2026-05-08 04:49 47.10512 -1.24236 32966 ft 491 kts 135°
2026-05-08 04:49 47.06657 -1.16066 32969 ft 488 kts 135°
2026-05-08 04:50 47.02828 -1.07976 32971 ft 486 kts 135°
2026-05-08 04:50 46.98952 -0.99820 32973 ft 489 kts 135°
2026-05-08 04:51 46.95088 -0.91702 32979 ft 487 kts 135°
2026-05-08 04:51 46.91192 -0.83546 32984 ft 487 kts 135°
2026-05-08 04:52 46.87295 -0.75416 33008 ft 489 kts 135°
2026-05-08 04:52 46.83438 -0.67384 33012 ft 487 kts 135°
2026-05-08 04:53 46.79522 -0.59258 33012 ft 488 kts 135°
2026-05-08 04:53 46.75639 -0.51218 33013 ft 486 kts 135°
2026-05-08 04:54 46.71867 -0.43441 33009 ft 488 kts 135°
2026-05-08 04:54 46.67960 -0.35398 33006 ft 486 kts 135°
2026-05-08 04:55 46.64062 -0.27403 32990 ft 487 kts 135°
2026-05-08 04:55 46.60348 -0.19115 32993 ft 493 kts 129°
2026-05-08 04:56 46.56945 -0.10441 32990 ft 495 kts 129°
2026-05-08 04:56 46.53515 -0.01795 32989 ft 494 kts 130°
2026-05-08 04:57 46.50058 0.06829 32991 ft 495 kts 130°
2026-05-08 04:57 46.46624 0.15341 32993 ft 496 kts 130°
2026-05-08 04:58 46.43138 0.23942 32993 ft 494 kts 130°
2026-05-08 04:58 46.39680 0.32436 32993 ft 492 kts 130°
2026-05-08 04:59 46.36240 0.40849 32995 ft 495 kts 130°
2026-05-08 04:59 46.32742 0.49386 32997 ft 492 kts 130°
2026-05-08 05:00 46.29234 0.57909 32999 ft 495 kts 130°
2026-05-08 05:00 46.25746 0.66367 32999 ft 491 kts 131°
2026-05-08 05:01 46.22219 0.74886 32996 ft 493 kts 131°
2026-05-08 05:01 46.18703 0.83355 33000 ft 493 kts 131°
2026-05-08 05:02 46.15176 0.91821 33003 ft 492 kts 131°
2026-05-08 05:02 46.11659 1.00243 33007 ft 491 kts 131°
2026-05-08 05:03 46.08096 1.08743 33016 ft 492 kts 131°
2026-05-08 05:03 46.04575 1.17120 33026 ft 492 kts 131°
2026-05-08 05:04 46.01034 1.25522 33032 ft 491 kts 131°
2026-05-08 05:04 45.97520 1.34035 33030 ft 499 kts 125°
2026-05-08 05:05 45.96190 1.38662 33037 ft 511 kts 116°
2026-05-08 05:05 45.95320 1.43684 33037 ft 521 kts 107°
2026-05-08 05:05 45.94974 1.48905 33044 ft 534 kts 96°
2026-05-08 05:05 45.95127 1.54261 33055 ft 538 kts 91°
2026-05-08 05:06 45.95693 1.64985 33053 ft 538 kts 91°
2026-05-08 05:06 45.96193 1.75638 33042 ft 537 kts 92°
2026-05-08 05:07 45.96641 1.86295 33056 ft 538 kts 93°
2026-05-08 05:07 45.97061 1.97033 33073 ft 537 kts 92°
2026-05-08 05:08 45.97454 2.07699 33085 ft 537 kts 93°
2026-05-08 05:08 45.97831 2.18402 33092 ft 538 kts 93°
2026-05-08 05:09 45.98194 2.29075 33094 ft 535 kts 93°
2026-05-08 05:09 45.98544 2.39769 33091 ft 536 kts 93°
2026-05-08 05:10 45.99048 2.55770 33090 ft 535 kts 93°
2026-05-08 05:11 45.99305 2.66492 33088 ft 531 kts 99°
2026-05-08 05:11 45.98093 2.76675 33096 ft 511 kts 117°
2026-05-08 05:11 45.96756 2.81370 33098 ft 499 kts 127°
2026-05-08 05:12 45.95027 2.85540 33105 ft 486 kts 135°
2026-05-08 05:12 45.92904 2.89285 33106 ft 472 kts 144°
2026-05-08 05:12 45.90612 2.92590 33114 ft 470 kts 146°
2026-05-08 05:13 45.85915 2.99035 33137 ft 467 kts 147°
2026-05-08 05:13 45.81144 3.05348 33133 ft 466 kts 148°
2026-05-08 05:14 45.76362 3.11543 33117 ft 464 kts 148°
2026-05-08 05:14 45.71527 3.17724 33094 ft 468 kts 148°
2026-05-08 05:15 45.66701 3.23854 33068 ft 464 kts 149°
2026-05-08 05:15 45.61852 3.29973 33065 ft 467 kts 149°
2026-05-08 05:16 45.57026 3.36048 33092 ft 464 kts 149°
2026-05-08 05:16 45.52168 3.42137 33130 ft 465 kts 149°
2026-05-08 05:17 45.47342 3.48171 33173 ft 467 kts 149°
2026-05-08 05:17 45.42460 3.54260 33169 ft 466 kts 149°
2026-05-08 05:18 45.37569 3.60346 33148 ft 465 kts 149°
2026-05-08 05:18 45.32745 3.66332 33140 ft 466 kts 149°
2026-05-08 05:19 45.28032 3.72615 33149 ft 476 kts 140°
2026-05-08 05:19 45.26050 3.76504 33165 ft 491 kts 131°
2026-05-08 05:19 45.24500 3.80831 33166 ft 506 kts 121°
2026-05-08 05:20 45.22415 3.90500 33140 ft 512 kts 114°
2026-05-08 05:20 45.20487 4.00234 33110 ft 514 kts 114°
2026-05-08 05:21 45.18534 4.09906 33116 ft 511 kts 114°
2026-05-08 05:21 45.16546 4.19607 33142 ft 513 kts 114°
2026-05-08 05:22 45.14537 4.29320 33167 ft 512 kts 115°
2026-05-08 05:22 45.12510 4.38911 33164 ft 509 kts 118°
2026-05-08 05:22 45.11155 4.43371 33165 ft 498 kts 127°
2026-05-08 05:23 45.09396 4.47406 33154 ft 487 kts 136°
2026-05-08 05:23 45.05219 4.54540 33115 ft 476 kts 140°
2026-05-08 05:24 45.01072 4.61341 33079 ft 476 kts 141°
2026-05-08 05:24 44.96817 4.68283 33044 ft 476 kts 141°
2026-05-08 05:25 44.92503 4.75302 33025 ft 474 kts 141°
2026-05-08 05:25 44.88174 4.82316 33022 ft 476 kts 141°
2026-05-08 05:26 44.83845 4.89316 33014 ft 476 kts 141°
2026-05-08 05:26 44.79502 4.96318 33011 ft 476 kts 141°
2026-05-08 05:27 44.75148 5.03316 33018 ft 476 kts 141°
2026-05-08 05:27 44.70782 5.10319 33042 ft 478 kts 141°
2026-05-08 05:28 44.66426 5.17293 33073 ft 474 kts 141°
2026-05-08 05:28 44.62054 5.24267 33115 ft 476 kts 141°
2026-05-08 05:29 44.57688 5.31219 33158 ft 475 kts 141°
2026-05-08 05:29 44.53300 5.38186 33197 ft 477 kts 141°
2026-05-08 05:30 44.48920 5.45125 33227 ft 476 kts 141°
2026-05-08 05:30 44.44558 5.52020 33227 ft 474 kts 141°
2026-05-08 05:31 44.40191 5.58900 33204 ft 477 kts 141°
2026-05-08 05:31 44.36090 5.66211 33183 ft 484 kts 134°
2026-05-08 05:32 44.32325 5.74004 33162 ft 485 kts 134°
2026-05-08 05:32 44.28551 5.81790 33166 ft 487 kts 134°
2026-05-08 05:33 44.24751 5.89600 33173 ft 486 kts 134°
2026-05-08 05:33 44.20974 5.97335 33170 ft 486 kts 134°
2026-05-08 05:34 44.17147 6.05149 33164 ft 485 kts 134°
2026-05-08 05:34 44.13326 6.12922 33158 ft 487 kts 134°
2026-05-08 05:35 44.09545 6.20600 33156 ft 485 kts 134°
2026-05-08 05:35 44.05706 6.28369 33162 ft 486 kts 134°
2026-05-08 05:36 44.01881 6.36091 33184 ft 487 kts 134°
2026-05-08 05:36 43.98046 6.43812 33195 ft 485 kts 134°
2026-05-08 05:37 43.94227 6.51480 33206 ft 486 kts 134°
2026-05-08 05:37 43.90366 6.59213 33188 ft 486 kts 134°
2026-05-08 05:38 43.86512 6.66911 33186 ft 487 kts 135°
2026-05-08 05:38 43.82672 6.74563 33186 ft 484 kts 135°
2026-05-08 05:39 43.78817 6.82219 33186 ft 486 kts 135°
2026-05-08 05:39 43.74957 6.89870 33172 ft 485 kts 135°
2026-05-08 05:40 43.71109 6.97528 33127 ft 488 kts 133°
2026-05-08 05:40 43.67427 7.05432 33079 ft 487 kts 133°
2026-05-08 05:41 43.63757 7.13299 33039 ft 488 kts 133°
2026-05-08 05:41 43.60072 7.21162 33008 ft 487 kts 133°
2026-05-08 05:42 43.56401 7.28958 32987 ft 487 kts 133°
2026-05-08 05:42 43.52690 7.36812 32975 ft 489 kts 133°
2026-05-08 05:43 43.48993 7.44618 32968 ft 487 kts 133°
2026-05-08 05:43 43.45263 7.52466 32970 ft 487 kts 133°
2026-05-08 05:44 43.41569 7.60219 32969 ft 487 kts 133°
2026-05-08 05:44 43.37850 7.67999 32955 ft 488 kts 133°
2026-05-08 05:45 43.34113 7.75804 32956 ft 485 kts 134°
2026-05-08 05:45 43.30401 7.83526 32956 ft 488 kts 134°
2026-05-08 05:46 43.26659 7.91297 32957 ft 487 kts 133°
2026-05-08 05:46 43.22925 7.99030 32957 ft 487 kts 134°
2026-05-08 05:47 43.19189 8.06748 32958 ft 485 kts 134°
2026-05-08 05:47 43.15461 8.14424 32958 ft 486 kts 134°
2026-05-08 05:48 43.11704 8.22145 32958 ft 485 kts 133°
2026-05-08 05:48 43.07945 8.29844 32960 ft 488 kts 133°
2026-05-08 05:49 43.04224 8.37454 32962 ft 486 kts 133°
2026-05-08 05:49 43.00460 8.45126 32960 ft 487 kts 134°
2026-05-08 05:50 42.96675 8.52822 32959 ft 485 kts 133°
2026-05-08 05:50 42.92894 8.60490 32961 ft 487 kts 133°
2026-05-08 05:51 42.89095 8.68179 32956 ft 484 kts 134°
2026-05-08 05:51 42.85738 8.76340 32962 ft 498 kts 127°
2026-05-08 05:52 42.82505 8.84680 32961 ft 492 kts 128°
2026-05-08 05:52 42.79269 8.92913 32964 ft 495 kts 128°
2026-05-08 05:53 42.76015 9.01118 32966 ft 494 kts 128°
2026-05-08 05:53 42.72726 9.09360 32976 ft 494 kts 128°
2026-05-08 05:54 42.69449 9.17539 33001 ft 493 kts 128°
2026-05-08 05:54 42.66141 9.25769 33020 ft 492 kts 128°
2026-05-08 05:55 42.62832 9.33967 33022 ft 495 kts 128°
2026-05-08 05:55 42.59523 9.42145 33009 ft 493 kts 128°
2026-05-08 05:56 42.56507 9.50637 32984 ft 505 kts 119°
2026-05-08 05:56 42.54124 9.59666 32971 ft 505 kts 118°
2026-05-08 05:57 42.51754 9.68659 32958 ft 506 kts 119°
2026-05-08 05:57 42.49634 9.77848 32960 ft 517 kts 110°
2026-05-08 05:58 42.47410 9.86919 32958 ft 499 kts 127°
2026-05-08 05:58 42.45663 9.90897 32960 ft 486 kts 134°
2026-05-08 05:58 42.43750 9.94698 32959 ft 483 kts 135°
2026-05-08 05:59 42.39894 10.02137 32961 ft 485 kts 135°
2026-05-08 05:59 42.35970 10.09572 32961 ft 483 kts 136°
2026-05-08 06:00 42.32010 10.16984 32961 ft 485 kts 136°
2026-05-08 06:00 42.28071 10.24318 32960 ft 479 kts 136°
2026-05-08 06:01 42.24061 10.31723 33125 ft 497 kts 136°
2026-05-08 06:01 42.22013 10.35500 33615 ft 498 kts 136°
2026-05-08 06:01 42.20013 10.39195 34393 ft 492 kts 136°
2026-05-08 06:01 42.17996 10.42914 35122 ft 486 kts 136°
2026-05-08 06:02 42.15998 10.46588 35660 ft 485 kts 136°
2026-05-08 06:02 42.14022 10.50211 36049 ft 486 kts 136°
2026-05-08 06:02 42.12036 10.53847 36432 ft 486 kts 136°
2026-05-08 06:02 42.10032 10.57512 36731 ft 487 kts 136°
2026-05-08 06:03 42.08015 10.61196 36953 ft 489 kts 136°
2026-05-08 06:03 42.04042 10.68447 36949 ft 484 kts 137°
2026-05-08 06:04 42.00016 10.75769 36950 ft 488 kts 137°
2026-05-08 06:04 41.95989 10.83080 36949 ft 485 kts 137°
2026-05-08 06:05 41.91967 10.90359 36952 ft 488 kts 137°
2026-05-08 06:05 41.87967 10.97588 36966 ft 486 kts 137°
2026-05-08 06:06 41.83923 11.04873 36967 ft 486 kts 137°
2026-05-08 06:06 41.79900 11.12105 36968 ft 486 kts 137°
2026-05-08 06:07 41.75856 11.19356 36969 ft 487 kts 137°
2026-05-08 06:07 41.71837 11.26549 36969 ft 485 kts 137°
2026-05-08 06:08 41.67770 11.33807 36970 ft 486 kts 137°
2026-05-08 06:08 41.63717 11.41023 36972 ft 488 kts 137°
2026-05-08 06:09 41.59668 11.48217 36968 ft 485 kts 137°
2026-05-08 06:09 41.55597 11.55431 36972 ft 487 kts 137°
2026-05-08 06:10 41.51531 11.62620 36970 ft 485 kts 137°
2026-05-08 06:10 41.47440 11.69838 36958 ft 484 kts 137°
2026-05-08 06:11 41.43361 11.77013 36957 ft 485 kts 137°
2026-05-08 06:11 41.39339 11.84074 36958 ft 485 kts 137°
2026-05-08 06:12 41.35286 11.91172 36959 ft 486 kts 137°
2026-05-08 06:12 41.31184 11.98341 36958 ft 484 kts 137°
2026-05-08 06:13 41.27130 12.05493 36958 ft 486 kts 136°
2026-05-08 06:13 41.23143 12.12708 36959 ft 489 kts 136°
2026-05-08 06:14 41.19088 12.20025 36960 ft 487 kts 136°
2026-05-08 06:14 41.15072 12.27244 36960 ft 487 kts 136°
2026-05-08 06:15 41.11026 12.34496 36960 ft 487 kts 136°
2026-05-08 06:15 41.07002 12.41692 36961 ft 487 kts 136°
2026-05-08 06:16 41.02968 12.48887 36962 ft 487 kts 136°
2026-05-08 06:16 40.98907 12.56113 36961 ft 486 kts 136°
2026-05-08 06:17 40.92833 12.66888 36951 ft 486 kts 137°
2026-05-08 06:17 40.88799 12.74023 36962 ft 486 kts 137°
2026-05-08 06:18 40.84763 12.81146 36964 ft 487 kts 137°
2026-05-08 06:18 40.80708 12.88285 36964 ft 486 kts 137°
2026-05-08 06:19 40.76644 12.95422 36965 ft 486 kts 137°
2026-05-08 06:19 40.72605 13.02502 36965 ft 486 kts 137°
2026-05-08 06:20 40.68534 13.09621 36967 ft 486 kts 137°
2026-05-08 06:20 40.64463 13.16721 36966 ft 487 kts 137°
2026-05-08 06:21 40.60398 13.23799 36966 ft 484 kts 137°
2026-05-08 06:21 40.56352 13.30823 36967 ft 484 kts 137°
2026-05-08 06:22 40.52263 13.37904 36967 ft 488 kts 137°
2026-05-08 06:22 40.48189 13.44951 36967 ft 484 kts 137°
2026-05-08 06:23 40.44101 13.52001 36967 ft 485 kts 137°
2026-05-08 06:23 40.40022 13.59018 36969 ft 487 kts 137°
2026-05-08 06:24 40.35924 13.66059 36964 ft 484 kts 138°
2026-05-08 06:24 40.31843 13.73049 36955 ft 486 kts 138°
2026-05-08 06:25 40.27764 13.80023 36954 ft 483 kts 138°
2026-05-08 06:25 40.23670 13.87002 36956 ft 487 kts 138°
2026-05-08 06:26 40.19573 13.93977 36955 ft 484 kts 138°
2026-05-08 06:26 40.15480 14.00925 36956 ft 485 kts 138°
2026-05-08 06:27 40.11338 14.07944 36955 ft 483 kts 138°
2026-05-08 06:27 40.07241 14.14867 36957 ft 485 kts 138°
2026-05-08 06:28 40.03117 14.21824 36957 ft 484 kts 138°
2026-05-08 06:28 39.98996 14.28757 36958 ft 486 kts 138°
2026-05-08 06:29 39.94847 14.35726 36958 ft 484 kts 138°
2026-05-08 06:29 39.90719 14.42640 36960 ft 487 kts 138°
2026-05-08 06:30 39.86595 14.49533 36974 ft 486 kts 138°
2026-05-08 06:30 39.82463 14.56421 36977 ft 485 kts 138°
2026-05-08 06:31 39.78310 14.63327 36974 ft 483 kts 138°
2026-05-08 06:31 39.74173 14.70194 36962 ft 483 kts 139°
2026-05-08 06:32 39.70025 14.77061 36960 ft 484 kts 139°
2026-05-08 06:32 39.65877 14.83914 36961 ft 483 kts 139°
2026-05-08 06:33 39.61726 14.90757 36963 ft 484 kts 139°
2026-05-08 06:33 39.57589 14.97564 36963 ft 482 kts 139°
2026-05-08 06:34 39.53434 15.04383 36964 ft 485 kts 139°
2026-05-08 06:34 39.49257 15.11226 36962 ft 484 kts 139°
2026-05-08 06:35 39.45070 15.18070 36962 ft 483 kts 139°
2026-05-08 06:35 39.40899 15.24874 36963 ft 482 kts 139°
2026-05-08 06:36 39.36716 15.31680 36965 ft 484 kts 139°
2026-05-08 06:36 39.32547 15.38451 36966 ft 483 kts 139°
2026-05-08 06:37 39.28376 15.45211 36964 ft 482 kts 139°
2026-05-08 06:37 39.24161 15.52023 36966 ft 485 kts 139°
2026-05-08 06:38 39.19980 15.58773 36967 ft 484 kts 139°
2026-05-08 06:38 39.15808 15.65492 36965 ft 482 kts 139°
2026-05-08 06:39 39.11612 15.72234 36950 ft 483 kts 139°
2026-05-08 06:39 39.07405 15.78980 36951 ft 481 kts 139°
2026-05-08 06:40 39.03199 15.85708 36951 ft 483 kts 139°
2026-05-08 06:40 38.98978 15.92447 36953 ft 483 kts 139°
2026-05-08 06:41 38.94776 15.99144 36951 ft 481 kts 139°
2026-05-08 06:41 38.90579 16.05817 36964 ft 482 kts 139°
2026-05-08 06:42 38.86350 16.12525 36996 ft 483 kts 139°
2026-05-08 06:42 38.82177 16.19133 37004 ft 482 kts 139°
2026-05-08 06:43 38.77932 16.25840 37004 ft 484 kts 139°
2026-05-08 06:43 38.73706 16.32505 37013 ft 481 kts 139°
2026-05-08 06:44 38.69485 16.39144 37052 ft 485 kts 139°
2026-05-08 06:44 38.65254 16.45791 37068 ft 481 kts 139°
2026-05-08 06:45 38.61040 16.52393 37061 ft 481 kts 139°
2026-05-08 06:45 38.56803 16.59019 37032 ft 481 kts 139°
2026-05-08 06:46 38.52568 16.65627 37007 ft 483 kts 140°
2026-05-08 06:46 38.48332 16.72225 36971 ft 481 kts 140°
2026-05-08 06:47 38.44082 16.78830 36958 ft 481 kts 140°
2026-05-08 06:47 38.39853 16.85388 36958 ft 480 kts 140°
2026-05-08 06:48 38.35583 16.91998 36958 ft 481 kts 140°
2026-05-08 06:48 38.31353 16.98533 36958 ft 479 kts 140°
2026-05-08 06:49 38.27093 17.05098 36959 ft 481 kts 140°
2026-05-08 06:49 38.22832 17.11653 36961 ft 483 kts 140°
2026-05-08 06:50 38.18560 17.18211 36961 ft 484 kts 140°
2026-05-08 06:50 38.14274 17.24782 36959 ft 480 kts 140°
2026-05-08 06:51 38.10023 17.31282 36961 ft 480 kts 140°
2026-05-08 06:51 38.05731 17.37828 36961 ft 482 kts 140°
2026-05-08 06:52 38.01451 17.44347 36962 ft 483 kts 140°
2026-05-08 06:52 37.97210 17.50795 36961 ft 480 kts 140°
2026-05-08 06:53 37.92942 17.57266 36962 ft 482 kts 140°
2026-05-08 06:53 37.88691 17.63705 36976 ft 481 kts 140°
2026-05-08 06:54 37.84404 17.70183 36961 ft 478 kts 141°
2026-05-08 06:54 37.80137 17.76616 36962 ft 479 kts 140°
2026-05-08 06:55 37.75803 17.83138 36962 ft 480 kts 141°
2026-05-08 06:55 37.71518 17.89575 36962 ft 480 kts 141°
2026-05-08 06:56 37.67214 17.96025 36963 ft 480 kts 140°
2026-05-08 06:56 37.63029 18.02286 36964 ft 481 kts 141°
2026-05-08 06:57 37.58930 18.08409 36964 ft 479 kts 140°
2026-05-08 06:57 37.54778 18.14595 36963 ft 479 kts 140°
2026-05-08 06:58 37.50532 18.20909 36964 ft 480 kts 140°
2026-05-08 06:58 37.46365 18.27099 36964 ft 478 kts 141°
2026-05-08 06:59 37.42010 18.33552 36965 ft 479 kts 140°
2026-05-08 06:59 37.37652 18.39995 36965 ft 480 kts 141°
2026-05-08 07:00 37.33300 18.46420 36970 ft 482 kts 140°
2026-05-08 07:00 37.28953 18.52829 36967 ft 479 kts 140°
2026-05-08 07:01 37.24609 18.59213 36967 ft 480 kts 141°
2026-05-08 07:01 37.20307 18.65525 36965 ft 479 kts 141°
2026-05-08 07:02 37.15972 18.71873 36952 ft 481 kts 141°
2026-05-08 07:02 37.11612 18.78248 36951 ft 478 kts 141°
2026-05-08 07:03 37.07280 18.84566 36952 ft 480 kts 141°
2026-05-08 07:03 37.02916 18.90922 36951 ft 479 kts 141°
2026-05-08 07:04 36.98595 18.97202 36952 ft 478 kts 141°
2026-05-08 07:04 36.94570 19.03974 36956 ft 491 kts 132°
2026-05-08 07:05 36.90908 19.11325 36954 ft 493 kts 132°
2026-05-08 07:05 36.87289 19.18552 36970 ft 495 kts 132°
2026-05-08 07:06 36.83632 19.25817 36972 ft 491 kts 132°
2026-05-08 07:06 36.79986 19.33026 36971 ft 493 kts 132°
2026-05-08 07:07 36.76324 19.40249 36971 ft 491 kts 132°
2026-05-08 07:07 36.72679 19.47414 36972 ft 491 kts 132°
2026-05-08 07:08 36.68980 19.54667 36973 ft 493 kts 132°
2026-05-08 07:08 36.65324 19.61826 36974 ft 491 kts 132°
2026-05-08 07:09 36.61663 19.68973 36958 ft 492 kts 133°
2026-05-08 07:09 36.57998 19.76113 36960 ft 493 kts 133°
2026-05-08 07:10 36.54310 19.83287 36959 ft 490 kts 133°
2026-05-08 07:10 36.50623 19.90438 36960 ft 491 kts 133°
2026-05-08 07:11 36.46938 19.97571 36961 ft 493 kts 133°
2026-05-08 07:11 36.43233 20.04731 36960 ft 491 kts 133°
2026-05-08 07:12 36.39537 20.11857 36962 ft 490 kts 133°
2026-05-08 07:12 36.35841 20.18965 36963 ft 492 kts 133°
2026-05-08 07:13 36.32151 20.26051 36963 ft 491 kts 133°
2026-05-08 07:13 36.28435 20.33169 36964 ft 493 kts 133°
2026-05-08 07:14 36.24705 20.40302 36963 ft 490 kts 133°
2026-05-08 07:14 36.20976 20.47417 36965 ft 490 kts 133°
2026-05-08 07:15 36.17278 20.54458 36966 ft 490 kts 133°
2026-05-08 07:15 36.13538 20.61560 36968 ft 493 kts 133°
2026-05-08 07:16 36.09818 20.68616 36951 ft 491 kts 133°
2026-05-08 07:16 36.06070 20.75707 36951 ft 491 kts 133°
2026-05-08 07:17 36.02341 20.82751 36951 ft 491 kts 133°
2026-05-08 07:17 35.98608 20.89785 36952 ft 490 kts 133°
2026-05-08 07:18 35.94855 20.96841 36951 ft 490 kts 133°
2026-05-08 07:18 35.91130 21.03830 36953 ft 492 kts 133°
2026-05-08 07:19 35.87365 21.10883 36968 ft 491 kts 133°
2026-05-08 07:19 35.83609 21.17903 36971 ft 492 kts 133°
2026-05-08 07:20 35.79844 21.24928 36971 ft 491 kts 133°
2026-05-08 07:20 35.76088 21.31919 36970 ft 490 kts 133°
2026-05-08 07:21 35.72298 21.38959 36972 ft 491 kts 133°
2026-05-08 07:21 35.68560 21.45892 36973 ft 490 kts 133°
2026-05-08 07:22 35.64771 21.52902 36972 ft 489 kts 133°
2026-05-08 07:22 35.60982 21.59896 36973 ft 491 kts 133°
2026-05-08 07:23 35.57229 21.66814 36963 ft 489 kts 134°
2026-05-08 07:23 35.53449 21.73765 36959 ft 491 kts 134°
2026-05-08 07:24 35.49690 21.80667 36958 ft 489 kts 134°
2026-05-08 07:24 35.45919 21.87573 36959 ft 490 kts 134°
2026-05-08 07:25 35.42116 21.94525 36959 ft 490 kts 134°
2026-05-08 07:26 35.36456 22.04849 36960 ft 488 kts 134°
2026-05-08 07:26 35.32658 22.11755 36961 ft 491 kts 134°
2026-05-08 07:27 35.28886 22.18606 36962 ft 491 kts 134°
2026-05-08 07:27 35.25085 22.25496 36960 ft 488 kts 134°
2026-05-08 07:28 35.21251 22.32428 36963 ft 490 kts 134°
2026-05-08 07:28 35.17425 22.39336 36961 ft 487 kts 134°
2026-05-08 07:29 35.13585 22.46252 36963 ft 488 kts 134°
2026-05-08 07:29 35.09762 22.53124 36964 ft 490 kts 134°
2026-05-08 07:30 35.05934 22.59995 36964 ft 488 kts 134°
2026-05-08 07:30 35.02099 22.66862 36952 ft 489 kts 135°
2026-05-08 07:31 34.98252 22.73739 36951 ft 489 kts 135°
2026-05-08 07:31 34.94435 22.80549 36949 ft 487 kts 135°
2026-05-08 07:32 34.90574 22.87420 36950 ft 489 kts 134°
2026-05-08 07:32 34.86738 22.94237 36965 ft 490 kts 134°
2026-05-08 07:33 34.82894 23.01059 36965 ft 487 kts 135°
2026-05-08 07:33 34.79029 23.07898 36966 ft 489 kts 135°
2026-05-08 07:34 34.75166 23.14727 36967 ft 487 kts 135°
2026-05-08 07:34 34.71298 23.21543 36968 ft 489 kts 134°
2026-05-08 07:35 34.67409 23.28391 36968 ft 488 kts 135°
2026-05-08 07:35 34.63542 23.35182 36969 ft 490 kts 135°
2026-05-08 07:36 34.59700 23.41922 36970 ft 487 kts 135°
2026-05-08 07:36 34.55823 23.48702 36971 ft 490 kts 134°
2026-05-08 07:37 34.51975 23.55428 36971 ft 486 kts 135°
2026-05-08 07:37 34.48058 23.62253 36972 ft 489 kts 134°
2026-05-08 07:38 34.44171 23.69020 36956 ft 487 kts 135°
2026-05-08 07:38 34.40308 23.75727 36956 ft 488 kts 135°
2026-05-08 07:39 34.36425 23.82459 36957 ft 488 kts 135°
2026-05-08 07:39 34.32531 23.89197 36956 ft 487 kts 135°
2026-05-08 07:40 34.28651 23.95900 36957 ft 486 kts 135°
2026-05-08 07:40 34.24735 24.02650 36957 ft 486 kts 135°
2026-05-08 07:41 34.20865 24.09306 36959 ft 489 kts 135°
2026-05-08 07:41 34.16956 24.16023 36959 ft 488 kts 135°
2026-05-08 07:42 34.13024 24.22762 36960 ft 488 kts 135°
2026-05-08 07:42 34.09100 24.29479 36959 ft 486 kts 135°
2026-05-08 07:43 34.05191 24.36153 36960 ft 487 kts 135°
2026-05-08 07:43 34.01236 24.42846 36954 ft 481 kts 139°
2026-05-08 07:44 33.96616 24.48486 36962 ft 470 kts 148°
2026-05-08 07:44 33.91774 24.53779 36963 ft 468 kts 148°
2026-05-08 07:45 33.86914 24.59041 36976 ft 468 kts 148°
2026-05-08 07:45 33.82037 24.64298 36977 ft 468 kts 148°
2026-05-08 07:46 33.77201 24.69491 36961 ft 467 kts 149°
2026-05-08 07:46 33.72377 24.74657 36960 ft 467 kts 149°
2026-05-08 07:47 33.67511 24.79858 36962 ft 467 kts 149°
2026-05-08 07:47 33.62658 24.85034 36960 ft 466 kts 149°
2026-05-08 07:48 33.57812 24.90195 36960 ft 467 kts 149°
2026-05-08 07:48 33.52938 24.95377 36962 ft 466 kts 149°
2026-05-08 07:49 33.48081 25.00532 36962 ft 467 kts 149°
2026-05-08 07:49 33.43240 25.05663 36961 ft 467 kts 149°
2026-05-08 07:50 33.38369 25.10818 36962 ft 468 kts 149°
2026-05-08 07:50 33.33520 25.15943 36961 ft 466 kts 149°
2026-05-08 07:51 33.28649 25.21079 36961 ft 466 kts 149°
2026-05-08 07:51 33.23768 25.26220 36960 ft 467 kts 149°
2026-05-08 07:52 33.18890 25.31351 36962 ft 466 kts 149°
2026-05-08 07:52 33.14019 25.36463 36963 ft 468 kts 149°
2026-05-08 07:53 33.09125 25.41596 36962 ft 466 kts 149°
2026-05-08 07:53 33.04247 25.46702 36962 ft 465 kts 149°
2026-05-08 07:54 32.99401 25.51768 36962 ft 465 kts 149°
2026-05-08 07:54 32.94523 25.56856 36964 ft 468 kts 149°
2026-05-08 07:55 32.89635 25.61951 36964 ft 465 kts 149°
2026-05-08 07:55 32.84757 25.67024 36962 ft 467 kts 150°
2026-05-08 07:56 32.79901 25.72071 36961 ft 465 kts 149°
2026-05-08 07:56 32.75001 25.77151 36962 ft 466 kts 149°
2026-05-08 07:57 32.70125 25.82203 36960 ft 465 kts 149°
2026-05-08 07:57 32.65237 25.87258 36961 ft 466 kts 150°
2026-05-08 07:58 32.60319 25.92337 36960 ft 463 kts 150°
2026-05-08 07:58 32.55456 25.97348 36961 ft 466 kts 149°
2026-05-08 07:59 32.50549 26.02401 36962 ft 465 kts 150°
2026-05-08 07:59 32.45674 26.07411 36962 ft 466 kts 150°
2026-05-08 08:00 32.40777 26.12438 36963 ft 467 kts 150°
2026-05-08 08:00 32.35865 26.17472 36962 ft 465 kts 150°
2026-05-08 08:01 32.30967 26.22486 36962 ft 465 kts 150°
2026-05-08 08:01 32.26089 26.27467 36963 ft 466 kts 150°
2026-05-08 08:02 32.21189 26.32468 36961 ft 465 kts 149°
2026-05-08 08:02 32.16275 26.37474 36963 ft 466 kts 149°
2026-05-08 08:03 32.11380 26.42454 36963 ft 466 kts 149°
2026-05-08 08:03 32.06478 26.47434 36962 ft 464 kts 150°
2026-05-08 08:04 32.01568 26.52413 36963 ft 466 kts 149°
2026-05-08 08:04 31.96667 26.57378 36967 ft 464 kts 149°
2026-05-08 08:05 31.91752 26.62347 36968 ft 467 kts 149°
2026-05-08 08:05 31.86937 26.67211 36966 ft 465 kts 150°
2026-05-08 08:05 31.85738 26.68402 36948 ft 461 kts 139°
2026-05-08 08:06 31.83291 26.70867 36988 ft 467 kts 139°
2026-05-08 08:06 31.78341 26.75863 36991 ft 467 kts 139°
2026-05-08 08:06 31.75872 26.78351 37107 ft 468 kts 139°
2026-05-08 08:07 31.73368 26.80871 36972 ft 476 kts 140°
2026-05-08 08:07 31.68756 26.85506 36975 ft 485 kts 141°
2026-05-08 08:07 31.66202 26.88069 37124 ft 488 kts 141°
2026-05-08 08:08 31.63603 26.90675 37134 ft 494 kts 141°
2026-05-08 08:08 31.58329 26.95957 37136 ft 506 kts 140°
2026-05-08 08:09 31.52912 27.01374 37135 ft 512 kts 141°
2026-05-08 08:09 31.47486 27.06791 37136 ft 511 kts 140°
2026-05-08 08:10 31.42071 27.12189 37138 ft 512 kts 141°
2026-05-08 08:10 31.36614 27.17621 37140 ft 512 kts 141°
2026-05-08 08:11 31.31431 27.23308 37138 ft 512 kts 129°
2026-05-08 08:11 31.27356 27.30079 37143 ft 513 kts 123°
2026-05-08 08:12 31.23374 27.37016 37144 ft 512 kts 123°
2026-05-08 08:12 31.19396 27.43906 37144 ft 513 kts 123°
2026-05-08 08:13 31.15832 27.50055 37146 ft 512 kts 123°
2026-05-08 08:13 31.11799 27.56964 37148 ft 514 kts 124°
2026-05-08 08:14 31.07717 27.63809 37149 ft 512 kts 124°
2026-05-08 08:14 31.03647 27.70620 37142 ft 512 kts 125°
2026-05-08 08:15 30.99574 27.77426 37143 ft 513 kts 124°
2026-05-08 08:15 30.95516 27.84198 37144 ft 513 kts 124°
2026-05-08 08:16 30.91418 27.91023 37144 ft 512 kts 124°
2026-05-08 08:16 30.87331 27.97821 37137 ft 512 kts 124°
2026-05-08 08:17 30.83266 28.04570 37138 ft 512 kts 124°
2026-05-08 08:17 30.79169 28.11361 37140 ft 513 kts 124°
2026-05-08 08:18 30.75062 28.18157 37142 ft 513 kts 125°
2026-05-08 08:18 30.70976 28.24907 37142 ft 513 kts 125°
2026-05-08 08:19 30.66859 28.31695 37144 ft 512 kts 124°
2026-05-08 08:19 30.62754 28.38455 37145 ft 513 kts 124°
2026-05-08 08:20 30.58652 28.45195 37146 ft 513 kts 124°
2026-05-08 08:20 30.54530 28.51957 37146 ft 512 kts 124°
2026-05-08 08:21 30.50415 28.58698 37148 ft 512 kts 124°
2026-05-08 08:21 30.46308 28.65414 37148 ft 513 kts 125°
2026-05-08 08:22 30.42178 28.72156 37139 ft 512 kts 125°
2026-05-08 08:22 30.38035 28.78906 37138 ft 511 kts 125°
2026-05-08 08:23 30.33927 28.85590 37137 ft 512 kts 125°
2026-05-08 08:23 30.29776 28.92333 37137 ft 513 kts 125°
2026-05-08 08:24 30.25644 28.99033 37137 ft 512 kts 125°
2026-05-08 08:24 30.21505 29.05733 37139 ft 514 kts 125°
2026-05-08 08:25 30.17350 29.12455 37141 ft 512 kts 125°
2026-05-08 08:25 30.13212 29.19163 37143 ft 513 kts 125°
2026-05-08 08:26 30.09128 29.25883 37146 ft 513 kts 124°
2026-05-08 08:26 30.05032 29.32679 37148 ft 512 kts 124°
2026-05-08 08:27 30.00954 29.39429 37149 ft 512 kts 124°
2026-05-08 08:27 29.96900 29.46126 37152 ft 513 kts 124°
2026-05-08 08:28 29.92812 29.52864 37153 ft 513 kts 124°
2026-05-08 08:28 29.88692 29.59643 37146 ft 513 kts 124°
2026-05-08 08:29 29.84597 29.66368 37141 ft 513 kts 125°
2026-05-08 08:29 29.80492 29.73099 37138 ft 512 kts 125°
2026-05-08 08:30 29.76395 29.79806 37139 ft 512 kts 125°
2026-05-08 08:30 29.70216 29.89900 37142 ft 512 kts 125°
2026-05-08 08:31 29.66108 29.96596 37146 ft 513 kts 125°
2026-05-08 08:31 29.61986 30.03304 37148 ft 513 kts 125°
2026-05-08 08:32 29.57845 30.10034 37148 ft 512 kts 125°
2026-05-08 08:32 29.53744 30.16685 37148 ft 512 kts 125°
2026-05-08 08:33 29.49624 30.23358 37149 ft 514 kts 125°
2026-05-08 08:33 29.45494 30.30036 37147 ft 511 kts 125°
2026-05-08 08:34 29.41378 30.36681 37146 ft 514 kts 125°
2026-05-08 08:34 29.36742 30.42899 37145 ft 513 kts 134°
2026-05-08 08:35 29.31840 30.48758 37141 ft 511 kts 134°
2026-05-08 08:35 29.26884 30.54665 37142 ft 513 kts 134°
2026-05-08 08:36 29.21948 30.60541 37144 ft 512 kts 134°
2026-05-08 08:36 29.17005 30.66417 37139 ft 512 kts 135°
2026-05-08 08:37 29.12048 30.72300 37138 ft 512 kts 135°
2026-05-08 08:37 29.07115 30.78148 37139 ft 512 kts 135°
2026-05-08 08:38 29.02182 30.83986 37141 ft 512 kts 135°
2026-05-08 08:38 28.97229 30.89839 37141 ft 511 kts 135°
2026-05-08 08:39 28.92288 30.95670 37142 ft 512 kts 135°
2026-05-08 08:39 28.87317 31.01528 37137 ft 512 kts 135°
2026-05-08 08:40 28.82363 31.07356 37139 ft 512 kts 134°
2026-05-08 08:40 28.77421 31.13162 37142 ft 513 kts 134°
2026-05-08 08:41 28.72431 31.19017 37143 ft 511 kts 134°
2026-05-08 08:41 28.67549 31.24860 37149 ft 512 kts 132°
2026-05-08 08:42 28.62797 31.30888 37147 ft 511 kts 132°
2026-05-08 08:42 28.58052 31.36888 37150 ft 512 kts 132°
2026-05-08 08:43 28.53297 31.42878 37153 ft 511 kts 132°
2026-05-08 08:43 28.48511 31.48893 37154 ft 511 kts 132°
2026-05-08 08:44 28.43738 31.54878 37156 ft 511 kts 132°
2026-05-08 08:44 28.38961 31.60856 37158 ft 512 kts 132°
2026-05-08 08:45 28.34167 31.66847 37152 ft 511 kts 133°
2026-05-08 08:45 28.29397 31.72799 37154 ft 511 kts 133°
2026-05-08 08:46 28.24603 31.78772 37155 ft 511 kts 133°
2026-05-08 08:46 28.19793 31.84756 37158 ft 511 kts 133°
2026-05-08 08:47 28.15024 31.90680 37161 ft 512 kts 133°
2026-05-08 08:47 28.10214 31.96646 37163 ft 511 kts 133°
2026-05-08 08:48 28.05392 32.02620 37163 ft 511 kts 132°
2026-05-08 08:48 28.01371 32.09214 37172 ft 512 kts 118°
2026-05-08 08:49 27.97971 32.16279 37173 ft 511 kts 117°
2026-05-08 08:49 27.94567 32.23357 37176 ft 512 kts 117°
2026-05-08 08:50 27.91183 32.30376 37177 ft 510 kts 117°
2026-05-08 08:50 27.87751 32.37479 37168 ft 512 kts 117°
2026-05-08 08:51 27.84351 32.44501 37166 ft 512 kts 117°
2026-05-08 08:51 27.80955 32.51501 37165 ft 511 kts 117°
2026-05-08 08:52 27.77540 32.58527 37165 ft 511 kts 117°
2026-05-08 08:52 27.74120 32.65553 37165 ft 511 kts 118°
2026-05-08 08:53 27.70690 32.72587 37157 ft 513 kts 118°
2026-05-08 08:53 27.67253 32.79623 37157 ft 511 kts 118°
2026-05-08 08:54 27.63814 32.86652 37157 ft 513 kts 118°
2026-05-08 08:54 27.60378 32.93662 37159 ft 512 kts 118°
2026-05-08 08:55 27.56940 33.00667 37163 ft 512 kts 118°
2026-05-08 08:55 27.53501 33.07660 37162 ft 511 kts 118°
2026-05-08 08:56 27.50033 33.14702 37159 ft 511 kts 118°
2026-05-08 08:56 27.46589 33.21682 37156 ft 512 kts 118°
2026-05-08 08:57 27.43140 33.28661 37156 ft 512 kts 118°
2026-05-08 08:57 27.39675 33.35663 37156 ft 511 kts 118°
2026-05-08 08:58 27.36221 33.42629 37156 ft 513 kts 118°
2026-05-08 08:58 27.32761 33.49596 37153 ft 512 kts 118°
2026-05-08 08:59 27.29277 33.56599 37151 ft 511 kts 118°
2026-05-08 08:59 27.25813 33.63549 37149 ft 511 kts 118°
2026-05-08 09:00 27.22340 33.70510 37139 ft 512 kts 118°
2026-05-08 09:00 27.18841 33.77508 37139 ft 512 kts 118°
2026-05-08 09:01 27.15937 33.84766 37140 ft 512 kts 110°
2026-05-08 09:01 27.13313 33.92172 37139 ft 509 kts 110°
2026-05-08 09:02 27.10688 33.99566 37139 ft 511 kts 110°
2026-05-08 09:02 27.08070 34.06917 37140 ft 511 kts 110°
2026-05-08 09:03 27.05425 34.14326 37140 ft 511 kts 110°
2026-05-08 09:03 27.02782 34.21711 37141 ft 509 kts 110°
2026-05-08 09:04 27.00134 34.29094 37142 ft 510 kts 110°
2026-05-08 09:04 26.97491 34.36446 37143 ft 511 kts 110°
2026-05-08 09:05 26.94840 34.43808 37143 ft 510 kts 110°